Time,TemperatureF,DewpointF,PressureIn,WindDirection,WindDirectionDegrees,WindSpeedMPH,WindSpeedGustMPH,Humidity,HourlyPrecipIn,Conditions,Clouds,dailyrainin,SoftwareType,DateUTC
2013-04-19 00:00:00,57.8,56.7,29.46,SSW,202,0.0,10.0,96,0.07,,---,0.00,VWS V14.00,2013-04-19 04:00:00,
2013-04-19 00:01:00,57.8,56.7,29.46,SSW,202,0.0,10.0,96,0.07,,---,0.84,VWS V14.00,2013-04-19 04:01:00,
2013-04-19 00:06:00,57.6,56.5,29.46,SSW,202,0.0,0.0,96,0.03,,---,0.00,VWS V14.00,2013-04-19 04:06:00,
2013-04-19 00:11:00,57.6,56.5,29.46,SSW,202,0.0,0.0,96,0.03,,---,0.00,VWS V14.00,2013-04-19 04:11:00,
2013-04-19 00:16:00,57.6,56.8,29.44,SSE,164,0.0,0.0,97,0.03,,---,0.00,VWS V14.00,2013-04-19 04:16:00,
2013-04-19 00:17:00,57.6,56.8,29.44,SSE,164,0.0,0.0,97,0.03,,---,0.00,VWS V14.00,2013-04-19 04:17:00,
2013-04-19 00:21:00,57.5,56.7,29.44,SSE,154,0.0,4.0,97,0.03,,---,0.00,VWS V14.00,2013-04-19 04:21:00,
2013-04-19 00:22:00,57.5,56.7,29.44,South,188,6.0,6.0,97,0.03,,---,0.00,VWS V14.00,2013-04-19 04:22:00,
2013-04-19 00:26:00,57.6,56.8,29.44,SSW,205,0.0,8.0,97,0.03,,---,0.00,VWS V14.00,2013-04-19 04:26:00,
2013-04-19 00:27:00,57.6,56.8,29.44,SSW,205,0.0,8.0,97,0.03,,---,0.00,VWS V14.00,2013-04-19 04:27:00,
2013-04-19 00:31:00,57.6,56.8,29.45,South,174,0.0,8.0,97,0.03,,---,0.00,VWS V14.00,2013-04-19 04:31:00,
2013-04-19 00:32:00,57.6,56.8,29.45,South,174,0.0,8.0,97,0.03,,---,0.00,VWS V14.00,2013-04-19 04:32:00,
2013-04-19 00:36:00,57.6,56.8,29.45,SSW,210,0.0,9.0,97,0.03,,---,0.00,VWS V14.00,2013-04-19 04:36:00,
2013-04-19 00:37:00,57.6,56.8,29.45,SSW,210,4.0,9.0,97,0.03,,---,0.00,VWS V14.00,2013-04-19 04:37:00,
2013-04-19 00:38:00,57.6,56.8,29.45,SSW,202,6.0,9.0,97,0.03,,---,0.00,VWS V14.00,2013-04-19 04:38:00,
2013-04-19 00:41:00,57.6,56.8,29.45,SSW,206,7.0,9.0,97,0.03,,---,0.00,VWS V14.00,2013-04-19 04:41:00,
2013-04-19 00:42:00,57.6,56.8,29.45,SSW,205,7.0,11.0,97,0.03,,---,0.00,VWS V14.00,2013-04-19 04:42:00,
2013-04-19 00:43:00,57.6,56.8,29.45,SSW,199,0.0,11.0,97,0.03,,---,0.00,VWS V14.00,2013-04-19 04:43:00,
2013-04-19 00:47:00,57.6,56.8,29.47,West,260,0.0,13.0,97,0.03,,---,0.00,VWS V14.00,2013-04-19 04:47:00,
2013-04-19 00:48:00,57.6,56.8,29.47,West,268,0.0,13.0,97,0.03,,---,0.00,VWS V14.00,2013-04-19 04:48:00,
2013-04-19 00:52:00,57.6,57.0,29.47,SSW,203,2.0,13.0,98,0.03,,---,0.00,VWS V14.00,2013-04-19 04:52:00,
2013-04-19 00:53:00,57.6,57.0,29.47,SSW,203,0.0,13.0,98,0.03,,---,0.00,VWS V14.00,2013-04-19 04:53:00,
2013-04-19 00:54:00,57.6,57.0,29.47,SSW,203,1.0,13.0,98,0.03,,---,0.00,VWS V14.00,2013-04-19 04:54:00,
2013-04-19 00:57:00,57.6,57.0,29.47,SSW,203,0.0,13.0,98,0.03,,---,0.00,VWS V14.00,2013-04-19 04:57:00,
2013-04-19 00:58:00,57.6,57.0,29.47,SSW,203,0.0,13.0,98,0.03,,---,0.00,VWS V14.00,2013-04-19 04:58:00,
2013-04-19 00:59:00,57.6,57.0,29.47,SSW,203,0.0,13.0,98,0.03,,---,0.00,VWS V14.00,2013-04-19 04:59:00,
2013-04-19 01:00:00,57.5,56.9,29.45,SSE,168,0.0,13.0,98,0.03,,---,0.00,VWS V14.00,2013-04-19 05:00:00,
2013-04-19 01:02:00,57.5,56.9,29.45,SSE,168,0.0,0.0,98,0.00,,---,0.00,VWS V14.00,2013-04-19 05:02:00,
2013-04-19 01:03:00,57.5,56.9,29.45,SSE,168,0.0,0.0,98,0.00,,---,0.00,VWS V14.00,2013-04-19 05:03:00,
2013-04-19 01:04:00,57.5,56.9,29.45,SW,232,7.0,8.0,98,0.00,,---,0.00,VWS V14.00,2013-04-19 05:04:00,
2013-04-19 01:07:00,57.5,56.9,29.45,SW,230,0.0,8.0,98,0.00,,---,0.00,VWS V14.00,2013-04-19 05:07:00,
2013-04-19 01:08:00,57.5,56.9,29.45,SW,230,0.0,8.0,98,0.00,,---,0.00,VWS V14.00,2013-04-19 05:08:00,
2013-04-19 01:09:00,57.5,56.9,29.45,SW,229,1.0,8.0,98,0.00,,---,0.00,VWS V14.00,2013-04-19 05:09:00,
2013-04-19 01:13:00,57.5,56.9,29.45,SSE,151,0.0,8.0,98,0.00,,---,0.00,VWS V14.00,2013-04-19 05:13:00,
2013-04-19 01:15:00,57.5,56.9,29.45,South,185,4.0,8.0,98,0.00,,---,0.00,VWS V14.00,2013-04-19 05:15:00,
2013-04-19 01:18:00,57.3,56.7,29.43,SSE,158,2.0,8.0,98,0.01,,---,0.01,VWS V14.00,2013-04-19 05:18:00,
2013-04-19 01:19:00,57.3,56.7,29.43,SSE,158,0.0,8.0,98,0.01,,---,0.01,VWS V14.00,2013-04-19 05:19:00,
2013-04-19 01:20:00,57.3,56.7,29.43,SSE,158,0.0,8.0,98,0.01,,---,0.01,VWS V14.00,2013-04-19 05:20:00,
2013-04-19 01:23:00,57.3,56.7,29.43,SSE,158,0.0,8.0,98,0.01,,---,0.01,VWS V14.00,2013-04-19 05:23:00,
2013-04-19 01:24:00,57.3,56.7,29.43,SSE,158,0.0,8.0,98,0.01,,---,0.01,VWS V14.00,2013-04-19 05:24:00,
2013-04-19 01:25:00,57.3,56.7,29.43,SSE,158,0.0,8.0,98,0.01,,---,0.01,VWS V14.00,2013-04-19 05:25:00,
2013-04-19 01:28:00,57.3,56.7,29.43,SSE,158,0.0,8.0,98,0.01,,---,0.01,VWS V14.00,2013-04-19 05:28:00,
2013-04-19 01:29:00,57.3,56.7,29.43,SSE,158,0.0,8.0,98,0.01,,---,0.01,VWS V14.00,2013-04-19 05:29:00,
2013-04-19 01:30:00,57.3,56.7,29.43,SSE,158,0.0,8.0,98,0.01,,---,0.01,VWS V14.00,2013-04-19 05:30:00,
2013-04-19 01:33:00,57.3,56.7,29.42,SSE,158,0.0,8.0,98,0.01,,---,0.01,VWS V14.00,2013-04-19 05:33:00,
2013-04-19 01:34:00,57.3,56.7,29.42,SSE,158,0.0,8.0,98,0.01,,---,0.01,VWS V14.00,2013-04-19 05:34:00,
2013-04-19 01:35:00,57.3,56.7,29.42,SSE,158,0.0,8.0,98,0.01,,---,0.01,VWS V14.00,2013-04-19 05:35:00,
2013-04-19 01:39:00,57.3,57.0,29.42,SSE,158,0.0,8.0,99,0.01,,---,0.01,VWS V14.00,2013-04-19 05:39:00,
2013-04-19 01:40:00,57.3,57.0,29.42,SSE,158,0.0,8.0,99,0.01,,---,0.01,VWS V14.00,2013-04-19 05:40:00,
2013-04-19 01:44:00,57.2,56.9,29.42,SSE,158,0.0,8.0,99,0.01,,---,0.01,VWS V14.00,2013-04-19 05:44:00,
2013-04-19 01:45:00,57.2,56.9,29.40,SSE,158,0.0,8.0,99,0.01,,---,0.01,VWS V14.00,2013-04-19 05:45:00,
2013-04-19 01:49:00,57.2,56.9,29.40,SSE,158,0.0,8.0,99,0.01,,---,0.01,VWS V14.00,2013-04-19 05:49:00,
2013-04-19 01:51:00,57.2,56.9,29.40,SSE,158,0.0,8.0,99,0.01,,---,0.01,VWS V14.00,2013-04-19 05:51:00,
2013-04-19 01:54:00,57.2,56.9,29.40,SSE,158,0.0,8.0,99,0.01,,---,0.01,VWS V14.00,2013-04-19 05:54:00,
2013-04-19 01:56:00,57.2,56.9,29.40,SSE,158,0.0,8.0,99,0.01,,---,0.01,VWS V14.00,2013-04-19 05:56:00,
2013-04-19 01:59:00,57.2,56.9,29.40,SSE,158,0.0,8.0,99,0.01,,---,0.01,VWS V14.00,2013-04-19 05:59:00,
2013-04-19 02:00:00,57.0,56.7,29.39,SSE,158,0.0,8.0,99,0.01,,---,0.01,VWS V14.00,2013-04-19 06:00:00,
2013-04-19 02:01:00,57.0,56.7,29.39,SSE,158,0.0,8.0,99,0.01,,---,0.01,VWS V14.00,2013-04-19 06:01:00,
2013-04-19 02:04:00,57.0,56.7,29.39,SSE,158,0.0,0.0,99,0.01,,---,0.01,VWS V14.00,2013-04-19 06:04:00,
2013-04-19 02:05:00,57.0,56.7,29.39,SSE,158,0.0,0.0,99,0.01,,---,0.01,VWS V14.00,2013-04-19 06:05:00,
2013-04-19 02:06:00,57.0,56.7,29.39,SSE,158,0.0,0.0,99,0.01,,---,0.01,VWS V14.00,2013-04-19 06:06:00,
2013-04-19 02:09:00,57.0,56.7,29.39,SSE,158,0.0,0.0,99,0.01,,---,0.01,VWS V14.00,2013-04-19 06:09:00,
2013-04-19 02:10:00,57.0,56.7,29.39,SSE,158,0.0,0.0,99,0.01,,---,0.01,VWS V14.00,2013-04-19 06:10:00,
2013-04-19 02:11:00,57.0,56.7,29.39,SSE,158,0.0,0.0,99,0.01,,---,0.01,VWS V14.00,2013-04-19 06:11:00,
2013-04-19 02:14:00,57.0,56.7,29.39,SSE,158,0.0,0.0,99,0.01,,---,0.01,VWS V14.00,2013-04-19 06:14:00,
2013-04-19 02:15:00,57.0,56.7,29.39,SSE,158,0.0,0.0,99,0.01,,---,0.01,VWS V14.00,2013-04-19 06:15:00,
2013-04-19 02:16:00,56.9,56.6,29.39,SSE,158,0.0,0.0,99,0.01,,---,0.01,VWS V14.00,2013-04-19 06:16:00,
2013-04-19 02:19:00,56.9,56.6,29.39,SSE,158,0.0,0.0,99,0.01,,---,0.01,VWS V14.00,2013-04-19 06:19:00,
2013-04-19 02:20:00,56.9,56.6,29.39,SSE,158,0.0,0.0,99,0.01,,---,0.01,VWS V14.00,2013-04-19 06:20:00,
2013-04-19 02:21:00,56.9,56.9,29.39,SSE,158,0.0,0.0,100,0.01,,---,0.01,VWS V14.00,2013-04-19 06:21:00,
2013-04-19 02:24:00,56.9,56.9,29.39,SSE,148,0.0,0.0,100,0.01,,---,0.01,VWS V14.00,2013-04-19 06:24:00,
2013-04-19 02:25:00,56.9,56.9,29.39,SSE,148,0.0,0.0,100,0.01,,---,0.01,VWS V14.00,2013-04-19 06:25:00,
2013-04-19 02:26:00,56.9,56.9,29.39,SSE,148,0.0,0.0,100,0.01,,---,0.01,VWS V14.00,2013-04-19 06:26:00,
2013-04-19 02:29:00,56.9,56.9,29.39,SSE,148,2.0,4.0,100,0.01,,---,0.01,VWS V14.00,2013-04-19 06:29:00,
2013-04-19 02:30:00,56.9,56.9,29.39,SSE,148,0.0,4.0,100,0.01,,---,0.01,VWS V14.00,2013-04-19 06:30:00,
2013-04-19 02:31:00,56.9,56.9,29.39,SSE,148,0.0,4.0,100,0.01,,---,0.01,VWS V14.00,2013-04-19 06:31:00,
2013-04-19 02:34:00,56.9,56.9,29.39,SSE,147,0.0,6.0,100,0.02,,---,0.02,VWS V14.00,2013-04-19 06:34:00,
2013-04-19 02:35:00,56.9,56.9,29.39,SSE,147,0.0,6.0,100,0.02,,---,0.02,VWS V14.00,2013-04-19 06:35:00,
2013-04-19 02:36:00,56.9,56.9,29.39,SSE,147,0.0,6.0,100,0.02,,---,0.02,VWS V14.00,2013-04-19 06:36:00,
2013-04-19 02:39:00,56.9,56.9,29.39,SSE,155,0.0,7.0,100,0.03,,---,0.03,VWS V14.00,2013-04-19 06:39:00,
2013-04-19 02:40:00,56.9,56.9,29.39,SE,127,4.0,7.0,100,0.03,,---,0.03,VWS V14.00,2013-04-19 06:40:00,
2013-04-19 02:41:00,56.9,56.9,29.39,SE,133,0.0,7.0,100,0.03,,---,0.03,VWS V14.00,2013-04-19 06:41:00,
2013-04-19 02:45:00,56.9,56.9,29.39,SE,130,0.0,8.0,100,0.04,,---,0.04,VWS V14.00,2013-04-19 06:45:00,
2013-04-19 02:46:00,56.9,56.9,29.38,SE,131,0.0,8.0,100,0.04,,---,0.04,VWS V14.00,2013-04-19 06:46:00,
2013-04-19 02:50:00,56.9,56.9,29.38,SE,134,0.0,8.0,100,0.04,,---,0.04,VWS V14.00,2013-04-19 06:50:00,
2013-04-19 02:51:00,56.9,56.9,29.38,SE,131,2.0,8.0,100,0.05,,---,0.05,VWS V14.00,2013-04-19 06:51:00,
2013-04-19 02:55:00,56.9,56.9,29.38,SE,130,0.0,8.0,100,0.05,,---,0.05,VWS V14.00,2013-04-19 06:55:00,
2013-04-19 02:56:00,56.9,56.9,29.38,SE,131,0.0,8.0,100,0.05,,---,0.05,VWS V14.00,2013-04-19 06:56:00,
2013-04-19 02:57:00,56.9,56.9,29.38,SE,131,0.0,8.0,100,0.06,,---,0.06,VWS V14.00,2013-04-19 06:57:00,
2013-04-19 03:00:00,56.9,56.9,29.38,SE,131,0.0,8.0,100,0.06,,---,0.06,VWS V14.00,2013-04-19 07:00:00,
2013-04-19 03:01:00,56.9,56.9,29.36,ESE,120,0.0,0.0,100,0.05,,---,0.06,VWS V14.00,2013-04-19 07:01:00,
2013-04-19 03:02:00,56.9,56.9,29.36,ESE,103,0.0,4.0,100,0.05,,---,0.06,VWS V14.00,2013-04-19 07:02:00,
2013-04-19 03:05:00,56.9,56.9,29.36,East,96,0.0,4.0,100,0.05,,---,0.06,VWS V14.00,2013-04-19 07:05:00,
2013-04-19 03:06:00,56.9,56.9,29.36,East,99,0.0,4.0,100,0.05,,---,0.06,VWS V14.00,2013-04-19 07:06:00,
2013-04-19 03:07:00,56.9,56.9,29.36,ESE,102,0.0,4.0,100,0.05,,---,0.06,VWS V14.00,2013-04-19 07:07:00,
2013-04-19 03:10:00,56.9,56.9,29.36,ESE,103,0.0,4.0,100,0.06,,---,0.07,VWS V14.00,2013-04-19 07:10:00,
2013-04-19 03:11:00,56.9,56.9,29.36,ESE,103,0.0,4.0,100,0.06,,---,0.07,VWS V14.00,2013-04-19 07:11:00,
2013-04-19 03:12:00,56.9,56.9,29.36,ESE,103,0.0,4.0,100,0.06,,---,0.07,VWS V14.00,2013-04-19 07:12:00,
2013-04-19 03:16:00,56.9,56.9,29.34,SE,130,0.0,8.0,100,0.06,,---,0.07,VWS V14.00,2013-04-19 07:16:00,
2013-04-19 03:17:00,56.9,56.9,29.34,ESE,103,0.0,8.0,100,0.06,,---,0.07,VWS V14.00,2013-04-19 07:17:00,
2013-04-19 03:21:00,56.9,56.9,29.34,East,82,2.0,8.0,100,0.07,,---,0.08,VWS V14.00,2013-04-19 07:21:00,
2013-04-19 03:22:00,56.9,56.9,29.34,East,95,4.0,8.0,100,0.07,,---,0.08,VWS V14.00,2013-04-19 07:22:00,
2013-04-19 03:23:00,56.9,56.9,29.34,ESE,110,2.0,8.0,100,0.07,,---,0.08,VWS V14.00,2013-04-19 07:23:00,
2013-04-19 03:26:00,56.9,56.9,29.34,ESE,113,0.0,8.0,100,0.07,,---,0.08,VWS V14.00,2013-04-19 07:26:00,
2013-04-19 03:27:00,56.9,56.9,29.34,East,100,6.0,8.0,100,0.07,,---,0.08,VWS V14.00,2013-04-19 07:27:00,
2013-04-19 03:28:00,56.9,56.9,29.34,East,82,2.0,8.0,100,0.07,,---,0.08,VWS V14.00,2013-04-19 07:28:00,
2013-04-19 03:31:00,56.9,56.9,29.32,East,93,1.0,8.0,100,0.07,,---,0.08,VWS V14.00,2013-04-19 07:31:00,
2013-04-19 03:32:00,56.9,56.9,29.32,East,93,0.0,8.0,100,0.07,,---,0.08,VWS V14.00,2013-04-19 07:32:00,
2013-04-19 03:33:00,56.9,56.9,29.32,ESE,107,4.0,8.0,100,0.07,,---,0.08,VWS V14.00,2013-04-19 07:33:00,
2013-04-19 03:36:00,56.9,56.9,29.32,East,92,4.0,8.0,100,0.07,,---,0.08,VWS V14.00,2013-04-19 07:36:00,
2013-04-19 03:37:00,56.9,56.9,29.32,East,92,0.0,8.0,100,0.07,,---,0.08,VWS V14.00,2013-04-19 07:37:00,
2013-04-19 03:38:00,56.9,56.9,29.32,ESE,102,4.0,8.0,100,0.07,,---,0.08,VWS V14.00,2013-04-19 07:38:00,
2013-04-19 03:42:00,56.9,56.9,29.32,SE,133,1.0,8.0,100,0.07,,---,0.08,VWS V14.00,2013-04-19 07:42:00,
2013-04-19 03:43:00,57.0,57.0,29.32,ENE,65,0.0,8.0,100,0.07,,---,0.08,VWS V14.00,2013-04-19 07:43:00,
2013-04-19 03:47:00,57.0,57.0,29.30,SE,145,1.0,9.0,100,0.07,,---,0.08,VWS V14.00,2013-04-19 07:47:00,
2013-04-19 03:48:00,57.0,57.0,29.30,SE,126,2.0,9.0,100,0.07,,---,0.08,VWS V14.00,2013-04-19 07:48:00,
2013-04-19 03:52:00,57.0,57.0,29.30,ESE,109,0.0,9.0,100,0.08,,---,0.09,VWS V14.00,2013-04-19 07:52:00,
2013-04-19 03:53:00,57.0,57.0,29.30,ESE,113,6.0,9.0,100,0.08,,---,0.09,VWS V14.00,2013-04-19 07:53:00,
2013-04-19 03:57:00,57.0,57.0,29.30,SE,124,9.0,9.0,100,0.08,,---,0.09,VWS V14.00,2013-04-19 07:57:00,
2013-04-19 03:58:00,57.0,57.0,29.30,ESE,107,2.0,9.0,100,0.08,,---,0.09,VWS V14.00,2013-04-19 07:58:00,
2013-04-19 04:00:00,57.0,57.0,29.29,SE,127,6.0,9.0,100,0.08,,---,0.09,VWS V14.00,2013-04-19 08:00:00,
2013-04-19 04:02:00,57.0,57.0,29.29,ESE,113,4.0,7.0,100,0.03,,---,0.09,VWS V14.00,2013-04-19 08:02:00,
2013-04-19 04:03:00,57.0,57.0,29.29,ESE,113,0.0,7.0,100,0.03,,---,0.09,VWS V14.00,2013-04-19 08:03:00,
2013-04-19 04:07:00,57.0,57.0,29.29,SE,124,1.0,8.0,100,0.04,,---,0.10,VWS V14.00,2013-04-19 08:07:00,
2013-04-19 04:08:00,57.0,57.0,29.29,ESE,103,0.0,8.0,100,0.04,,---,0.10,VWS V14.00,2013-04-19 08:08:00,
2013-04-19 04:12:00,57.2,57.2,29.29,SE,127,4.0,8.0,100,0.04,,---,0.10,VWS V14.00,2013-04-19 08:12:00,
2013-04-19 04:13:00,57.2,57.2,29.29,ESE,113,0.0,8.0,100,0.04,,---,0.10,VWS V14.00,2013-04-19 08:13:00,
2013-04-19 04:17:00,57.2,57.2,29.28,SE,143,1.0,10.0,100,0.05,,---,0.11,VWS V14.00,2013-04-19 08:17:00,
2013-04-19 04:18:00,57.2,57.2,29.28,SE,127,4.0,10.0,100,0.05,,---,0.11,VWS V14.00,2013-04-19 08:18:00,
2013-04-19 04:22:00,57.3,57.3,29.28,ESE,120,6.0,10.0,100,0.05,,---,0.11,VWS V14.00,2013-04-19 08:22:00,
2013-04-19 04:23:00,57.3,57.3,29.28,SSE,154,6.0,10.0,100,0.06,,---,0.12,VWS V14.00,2013-04-19 08:23:00,
2013-04-19 04:24:00,57.3,57.3,29.28,SE,145,7.0,10.0,100,0.06,,---,0.12,VWS V14.00,2013-04-19 08:24:00,
2013-04-19 04:28:00,57.5,57.5,29.28,SSE,147,2.0,10.0,100,0.06,,---,0.12,VWS V14.00,2013-04-19 08:28:00,
2013-04-19 04:29:00,57.5,57.5,29.28,SSE,148,8.0,15.0,100,0.07,,---,0.13,VWS V14.00,2013-04-19 08:29:00,
2013-04-19 04:33:00,57.6,57.6,29.27,SSE,161,6.0,15.0,100,0.07,,---,0.13,VWS V14.00,2013-04-19 08:33:00,
2013-04-19 04:34:00,57.6,57.6,29.27,SSE,151,2.0,15.0,100,0.08,,---,0.14,VWS V14.00,2013-04-19 08:34:00,
2013-04-19 04:38:00,57.8,57.8,29.27,SSE,160,2.0,15.0,100,0.08,,---,0.14,VWS V14.00,2013-04-19 08:38:00,
2013-04-19 04:39:00,57.8,57.8,29.27,SSE,160,13.0,15.0,100,0.08,,---,0.14,VWS V14.00,2013-04-19 08:39:00,
2013-04-19 04:43:00,57.8,57.8,29.27,SE,140,0.0,15.0,100,0.09,,---,0.15,VWS V14.00,2013-04-19 08:43:00,
2013-04-19 04:44:00,57.8,57.8,29.27,South,172,2.0,15.0,100,0.09,,---,0.15,VWS V14.00,2013-04-19 08:44:00,
2013-04-19 04:48:00,58.0,58.0,29.26,SSE,150,6.0,15.0,100,0.10,,---,0.16,VWS V14.00,2013-04-19 08:48:00,
2013-04-19 04:49:00,58.0,58.0,29.26,SSE,160,6.0,15.0,100,0.11,,---,0.17,VWS V14.00,2013-04-19 08:49:00,
2013-04-19 04:50:00,58.0,58.0,29.26,SSE,147,4.0,15.0,100,0.11,,---,0.17,VWS V14.00,2013-04-19 08:50:00,
2013-04-19 04:53:00,58.0,58.0,29.26,South,169,0.0,15.0,100,0.11,,---,0.17,VWS V14.00,2013-04-19 08:53:00,
2013-04-19 04:54:00,58.0,58.0,29.26,SSE,160,4.0,15.0,100,0.11,,---,0.17,VWS V14.00,2013-04-19 08:54:00,
2013-04-19 04:55:00,58.0,58.0,29.26,SSE,160,0.0,15.0,100,0.12,,---,0.18,VWS V14.00,2013-04-19 08:55:00,
2013-04-19 04:58:00,58.0,58.0,29.26,South,176,8.0,15.0,100,0.12,,---,0.18,VWS V14.00,2013-04-19 08:58:00,
2013-04-19 04:59:00,58.0,58.0,29.26,SSE,161,4.0,15.0,100,0.12,,---,0.18,VWS V14.00,2013-04-19 08:59:00,
2013-04-19 05:00:00,58.0,58.0,29.26,SE,143,2.0,15.0,100,0.12,,---,0.18,VWS V14.00,2013-04-19 09:00:00,
2013-04-19 05:03:00,58.0,58.0,29.25,SSE,147,4.0,8.0,100,0.10,,---,0.19,VWS V14.00,2013-04-19 09:03:00,
2013-04-19 05:04:00,58.0,58.0,29.25,SE,144,6.0,8.0,100,0.10,,---,0.19,VWS V14.00,2013-04-19 09:04:00,
2013-04-19 05:05:00,58.0,58.0,29.25,SSE,154,0.0,8.0,100,0.10,,---,0.19,VWS V14.00,2013-04-19 09:05:00,
2013-04-19 05:08:00,58.0,58.0,29.25,SSE,161,4.0,8.0,100,0.10,,---,0.19,VWS V14.00,2013-04-19 09:08:00,
2013-04-19 05:09:00,58.0,58.0,29.25,SSE,161,0.0,8.0,100,0.10,,---,0.19,VWS V14.00,2013-04-19 09:09:00,
2013-04-19 05:10:00,58.0,58.0,29.25,SSW,198,4.0,9.0,100,0.10,,---,0.19,VWS V14.00,2013-04-19 09:10:00,
2013-04-19 05:13:00,58.1,58.1,29.25,SSE,162,0.0,9.0,100,0.10,,---,0.19,VWS V14.00,2013-04-19 09:13:00,
2013-04-19 05:14:00,58.1,58.1,29.25,South,178,6.0,9.0,100,0.10,,---,0.19,VWS V14.00,2013-04-19 09:14:00,
2013-04-19 05:15:00,58.1,58.1,29.25,SSE,164,7.0,9.0,100,0.10,,---,0.19,VWS V14.00,2013-04-19 09:15:00,
2013-04-19 05:16:00,58.1,58.1,29.24,SSE,164,1.0,9.0,100,0.10,,---,0.19,VWS V14.00,2013-04-19 09:16:00,
2013-04-19 05:19:00,58.1,58.1,29.24,SSE,161,7.0,11.0,100,0.10,,---,0.19,VWS V14.00,2013-04-19 09:19:00,
2013-04-19 05:20:00,58.1,58.1,29.24,SSE,151,4.0,11.0,100,0.10,,---,0.19,VWS V14.00,2013-04-19 09:20:00,
2013-04-19 05:21:00,58.1,58.1,29.24,South,172,7.0,11.0,100,0.10,,---,0.19,VWS V14.00,2013-04-19 09:21:00,
2013-04-19 05:24:00,58.1,58.1,29.24,ESE,112,9.0,11.0,100,0.10,,---,0.19,VWS V14.00,2013-04-19 09:24:00,
2013-04-19 05:26:00,58.1,58.1,29.24,South,169,1.0,11.0,100,0.10,,---,0.19,VWS V14.00,2013-04-19 09:26:00,
2013-04-19 05:29:00,58.3,58.3,29.24,SSW,199,0.0,11.0,100,0.10,,---,0.19,VWS V14.00,2013-04-19 09:29:00,
2013-04-19 05:31:00,58.3,58.3,29.24,South,189,2.0,11.0,100,0.11,,---,0.20,VWS V14.00,2013-04-19 09:31:00,
2013-04-19 05:34:00,58.3,58.3,29.24,SSW,210,9.0,13.0,100,0.11,,---,0.20,VWS V14.00,2013-04-19 09:34:00,
2013-04-19 05:36:00,58.3,58.3,29.24,SSW,200,4.0,13.0,100,0.12,,---,0.21,VWS V14.00,2013-04-19 09:36:00,
2013-04-19 05:39:00,58.3,58.3,29.24,SSW,205,8.0,13.0,100,0.13,,---,0.22,VWS V14.00,2013-04-19 09:39:00,
2013-04-19 05:41:00,58.3,58.3,29.24,SW,229,7.0,13.0,100,0.13,,---,0.22,VWS V14.00,2013-04-19 09:41:00,
2013-04-19 05:44:00,58.1,58.1,29.24,SSW,203,2.0,13.0,100,0.14,,---,0.23,VWS V14.00,2013-04-19 09:44:00,
2013-04-19 05:46:00,58.1,58.1,29.24,SW,215,11.0,13.0,100,0.15,,---,0.24,VWS V14.00,2013-04-19 09:46:00,
2013-04-19 05:49:00,58.1,58.1,29.24,South,191,7.0,13.0,100,0.16,,---,0.25,VWS V14.00,2013-04-19 09:49:00,
2013-04-19 05:50:00,58.1,58.1,29.24,SSW,206,9.0,13.0,100,0.16,,---,0.25,VWS V14.00,2013-04-19 09:50:00,
2013-04-19 05:51:00,58.1,58.1,29.24,SSW,210,8.0,13.0,100,0.16,,---,0.25,VWS V14.00,2013-04-19 09:51:00,
2013-04-19 05:55:00,58.1,58.1,29.24,SW,223,10.0,13.0,100,0.17,,---,0.26,VWS V14.00,2013-04-19 09:55:00,
2013-04-19 05:56:00,58.0,58.0,29.24,SW,230,15.0,24.0,100,0.18,,---,0.27,VWS V14.00,2013-04-19 09:56:00,
2013-04-19 05:57:00,56.9,56.9,29.24,SW,234,33.0,33.0,100,0.19,,---,0.28,VWS V14.00,2013-04-19 09:57:00,
2013-04-19 06:00:00,53.9,51.6,29.24,SW,236,16.0,33.0,92,0.20,,---,0.29,VWS V14.00,2013-04-19 10:00:00,
2013-04-19 06:01:00,52.9,50.6,29.27,West,275,15.0,33.0,92,0.20,,---,0.29,VWS V14.00,2013-04-19 10:01:00,
2013-04-19 06:02:00,52.2,50.2,29.27,WSW,248,13.0,21.0,93,0.11,,---,0.29,VWS V14.00,2013-04-19 10:02:00,
2013-04-19 06:05:00,51.3,49.6,29.27,WSW,247,14.0,22.0,94,0.11,,---,0.29,VWS V14.00,2013-04-19 10:05:00,
2013-04-19 06:06:00,51.0,49.3,29.27,SW,229,15.0,23.0,94,0.11,,---,0.29,VWS V14.00,2013-04-19 10:06:00,
2013-04-19 06:07:00,50.8,49.4,29.27,West,260,13.0,23.0,95,0.11,,---,0.29,VWS V14.00,2013-04-19 10:07:00,
2013-04-19 06:10:00,50.4,49.0,29.27,SW,216,14.0,23.0,95,0.11,,---,0.29,VWS V14.00,2013-04-19 10:10:00,
2013-04-19 06:11:00,50.2,48.8,29.27,West,270,18.0,23.0,95,0.11,,---,0.29,VWS V14.00,2013-04-19 10:11:00,
2013-04-19 06:13:00,50.1,48.7,29.27,West,275,14.0,23.0,95,0.11,,---,0.29,VWS V14.00,2013-04-19 10:13:00,
2013-04-19 06:15:00,49.9,48.5,29.27,West,264,13.0,23.0,95,0.11,,---,0.29,VWS V14.00,2013-04-19 10:15:00,
2013-04-19 06:17:00,49.8,48.4,29.27,West,277,15.0,23.0,95,0.12,,---,0.30,VWS V14.00,2013-04-19 10:17:00,
2013-04-19 06:18:00,49.8,48.4,29.27,SW,229,14.0,23.0,95,0.12,,---,0.30,VWS V14.00,2013-04-19 10:18:00,
2013-04-19 06:20:00,49.6,48.2,29.27,West,264,10.0,23.0,95,0.12,,---,0.30,VWS V14.00,2013-04-19 10:20:00,
2013-04-19 06:21:00,49.6,48.2,29.27,SW,226,10.0,23.0,95,0.12,,---,0.30,VWS V14.00,2013-04-19 10:21:00,
2013-04-19 06:22:00,49.6,48.2,29.27,SSW,200,10.0,23.0,95,0.12,,---,0.30,VWS V14.00,2013-04-19 10:22:00,
2013-04-19 06:23:00,49.5,48.4,29.27,SW,223,18.0,23.0,96,0.12,,---,0.30,VWS V14.00,2013-04-19 10:23:00,
2013-04-19 06:25:00,49.5,48.1,29.27,SW,216,9.0,23.0,95,0.12,,---,0.30,VWS V14.00,2013-04-19 10:25:00,
2013-04-19 06:26:00,49.5,48.1,29.27,West,270,13.0,23.0,95,0.12,,---,0.30,VWS V14.00,2013-04-19 10:26:00,
2013-04-19 06:27:00,49.5,48.1,29.27,SSW,212,8.0,23.0,95,0.12,,---,0.30,VWS V14.00,2013-04-19 10:27:00,
2013-04-19 06:28:00,49.5,48.1,29.27,SW,234,13.0,23.0,95,0.12,,---,0.30,VWS V14.00,2013-04-19 10:28:00,
2013-04-19 06:30:00,49.5,48.1,29.27,SW,223,14.0,23.0,95,0.12,,---,0.30,VWS V14.00,2013-04-19 10:30:00,
2013-04-19 06:31:00,49.5,48.1,29.29,WNW,291,7.0,23.0,95,0.12,,---,0.30,VWS V14.00,2013-04-19 10:31:00,
2013-04-19 06:32:00,49.4,48.0,29.29,WNW,287,9.0,23.0,95,0.12,,---,0.30,VWS V14.00,2013-04-19 10:32:00,
2013-04-19 06:33:00,49.4,48.0,29.29,WNW,295,13.0,23.0,95,0.12,,---,0.30,VWS V14.00,2013-04-19 10:33:00,
2013-04-19 06:35:00,49.4,48.0,29.29,WNW,296,15.0,23.0,95,0.12,,---,0.30,VWS V14.00,2013-04-19 10:35:00,
2013-04-19 06:36:00,49.4,48.0,29.29,West,274,15.0,23.0,95,0.12,,---,0.30,VWS V14.00,2013-04-19 10:36:00,
2013-04-19 06:37:00,49.4,48.0,29.29,WNW,299,15.0,23.0,95,0.12,,---,0.30,VWS V14.00,2013-04-19 10:37:00,
2013-04-19 06:38:00,49.2,47.8,29.29,WNW,285,8.0,23.0,95,0.12,,---,0.30,VWS V14.00,2013-04-19 10:38:00,
2013-04-19 06:40:00,48.9,47.5,29.29,West,265,11.0,24.0,95,0.12,,---,0.30,VWS V14.00,2013-04-19 10:40:00,
2013-04-19 06:41:00,48.9,47.5,29.29,WSW,241,9.0,24.0,95,0.13,,---,0.31,VWS V14.00,2013-04-19 10:41:00,
2013-04-19 06:42:00,48.8,47.4,29.29,SW,233,14.0,24.0,95,0.13,,---,0.31,VWS V14.00,2013-04-19 10:42:00,
2013-04-19 06:43:00,48.6,47.0,29.29,West,275,14.0,24.0,94,0.13,,---,0.31,VWS V14.00,2013-04-19 10:43:00,
2013-04-19 06:45:00,48.3,46.7,29.30,SW,223,10.0,24.0,94,0.13,,---,0.31,VWS V14.00,2013-04-19 10:45:00,
2013-04-19 06:46:00,48.3,46.7,29.30,WNW,287,16.0,24.0,94,0.13,,---,0.31,VWS V14.00,2013-04-19 10:46:00,
2013-04-19 06:47:00,48.3,46.9,29.30,SW,232,9.0,24.0,95,0.13,,---,0.31,VWS V14.00,2013-04-19 10:47:00,
2013-04-19 06:48:00,48.2,46.8,29.30,SW,227,9.0,24.0,95,0.13,,---,0.31,VWS V14.00,2013-04-19 10:48:00,
2013-04-19 06:50:00,48.2,46.8,29.30,SW,229,7.0,24.0,95,0.13,,---,0.31,VWS V14.00,2013-04-19 10:50:00,
2013-04-19 06:51:00,48.0,46.6,29.30,SW,236,11.0,24.0,95,0.13,,---,0.31,VWS V14.00,2013-04-19 10:51:00,
2013-04-19 06:52:00,48.0,46.6,29.30,WSW,257,11.0,24.0,95,0.13,,---,0.31,VWS V14.00,2013-04-19 10:52:00,
2013-04-19 06:53:00,48.0,46.6,29.30,SW,236,13.0,24.0,95,0.13,,---,0.31,VWS V14.00,2013-04-19 10:53:00,
2013-04-19 06:56:00,47.9,46.5,29.30,SW,233,14.0,24.0,95,0.13,,---,0.31,VWS V14.00,2013-04-19 10:56:00,
2013-04-19 06:57:00,47.9,46.5,29.30,WSW,243,8.0,24.0,95,0.13,,---,0.31,VWS V14.00,2013-04-19 10:57:00,
2013-04-19 06:58:00,47.7,46.3,29.30,SW,216,16.0,24.0,95,0.13,,---,0.31,VWS V14.00,2013-04-19 10:58:00,
2013-04-19 07:00:00,47.1,45.5,29.31,WNW,284,22.0,30.0,94,0.13,,---,0.31,VWS V14.00,2013-04-19 11:00:00,
2013-04-19 07:01:00,47.3,45.7,29.31,SW,216,16.0,30.0,94,0.13,,---,0.31,VWS V14.00,2013-04-19 11:01:00,
2013-04-19 07:02:00,47.0,45.1,29.31,SW,233,14.0,22.0,93,0.02,,---,0.31,VWS V14.00,2013-04-19 11:02:00,
2013-04-19 07:03:00,46.8,44.9,29.31,WNW,288,14.0,22.0,93,0.02,,---,0.31,VWS V14.00,2013-04-19 11:03:00,
2013-04-19 07:06:00,46.2,44.3,29.31,NW,322,16.0,28.0,93,0.02,,---,0.31,VWS V14.00,2013-04-19 11:06:00,
2013-04-19 07:07:00,46.0,44.1,29.31,SW,227,17.0,28.0,93,0.02,,---,0.31,VWS V14.00,2013-04-19 11:07:00,
2013-04-19 07:08:00,45.8,43.9,29.31,WNW,284,25.0,28.0,93,0.02,,---,0.31,VWS V14.00,2013-04-19 11:08:00,
2013-04-19 07:09:00,45.7,43.8,29.31,West,278,13.0,29.0,93,0.03,,---,0.32,VWS V14.00,2013-04-19 11:09:00,
2013-04-19 07:11:00,45.5,43.6,29.31,West,267,24.0,29.0,93,0.03,,---,0.32,VWS V14.00,2013-04-19 11:11:00,
2013-04-19 07:12:00,45.4,43.5,29.31,SW,227,11.0,29.0,93,0.03,,---,0.32,VWS V14.00,2013-04-19 11:12:00,
2013-04-19 07:13:00,45.2,43.3,29.31,WNW,284,7.0,29.0,93,0.03,,---,0.32,VWS V14.00,2013-04-19 11:13:00,
2013-04-19 07:14:00,45.2,43.3,29.31,WSW,258,14.0,29.0,93,0.03,,---,0.32,VWS V14.00,2013-04-19 11:14:00,
2013-04-19 07:16:00,45.1,43.2,29.31,West,275,17.0,29.0,93,0.03,,---,0.32,VWS V14.00,2013-04-19 11:16:00,
2013-04-19 07:17:00,44.9,43.0,29.31,WSW,244,11.0,29.0,93,0.03,,---,0.32,VWS V14.00,2013-04-19 11:17:00,
2013-04-19 07:18:00,44.9,43.0,29.31,SW,236,11.0,29.0,93,0.03,,---,0.32,VWS V14.00,2013-04-19 11:18:00,
2013-04-19 07:19:00,44.8,42.9,29.31,West,278,9.0,29.0,93,0.03,,---,0.32,VWS V14.00,2013-04-19 11:19:00,
2013-04-19 07:21:00,44.8,42.9,29.31,West,277,15.0,29.0,93,0.03,,---,0.32,VWS V14.00,2013-04-19 11:21:00,
2013-04-19 07:22:00,44.8,42.9,29.31,SW,219,8.0,29.0,93,0.03,,---,0.32,VWS V14.00,2013-04-19 11:22:00,
2013-04-19 07:23:00,44.8,42.9,29.31,SW,222,11.0,29.0,93,0.03,,---,0.32,VWS V14.00,2013-04-19 11:23:00,
2013-04-19 07:24:00,44.8,43.2,29.31,SW,224,8.0,29.0,94,0.03,,---,0.32,VWS V14.00,2013-04-19 11:24:00,
2013-04-19 07:26:00,44.8,43.2,29.31,WSW,246,9.0,29.0,94,0.03,,---,0.32,VWS V14.00,2013-04-19 11:26:00,
2013-04-19 07:27:00,44.8,42.9,29.31,West,280,17.0,29.0,93,0.03,,---,0.32,VWS V14.00,2013-04-19 11:27:00,
2013-04-19 07:28:00,44.6,42.7,29.31,SW,222,13.0,29.0,93,0.03,,---,0.32,VWS V14.00,2013-04-19 11:28:00,
2013-04-19 07:30:00,44.5,42.6,29.32,SW,232,18.0,29.0,93,0.03,,---,0.32,VWS V14.00,2013-04-19 11:30:00,
2013-04-19 07:31:00,44.5,42.6,29.32,SSW,209,7.0,29.0,93,0.03,,---,0.32,VWS V14.00,2013-04-19 11:31:00,
2013-04-19 07:32:00,44.5,42.6,29.32,SW,215,10.0,29.0,93,0.03,,---,0.32,VWS V14.00,2013-04-19 11:32:00,
2013-04-19 07:33:00,44.5,42.6,29.32,West,278,15.0,29.0,93,0.03,,---,0.32,VWS V14.00,2013-04-19 11:33:00,
2013-04-19 07:35:00,44.3,42.4,29.32,SW,220,14.0,29.0,93,0.03,,---,0.32,VWS V14.00,2013-04-19 11:35:00,
2013-04-19 07:36:00,44.2,42.3,29.32,SW,229,9.0,29.0,93,0.03,,---,0.32,VWS V14.00,2013-04-19 11:36:00,
2013-04-19 07:37:00,44.2,42.3,29.32,SSW,202,14.0,29.0,93,0.03,,---,0.32,VWS V14.00,2013-04-19 11:37:00,
2013-04-19 07:38:00,44.2,42.3,29.32,SW,220,8.0,29.0,93,0.03,,---,0.32,VWS V14.00,2013-04-19 11:38:00,
2013-04-19 07:41:00,44.2,42.3,29.32,SW,215,7.0,29.0,93,0.03,,---,0.32,VWS V14.00,2013-04-19 11:41:00,
2013-04-19 07:42:00,44.2,42.3,29.32,SW,229,7.0,29.0,93,0.03,,---,0.32,VWS V14.00,2013-04-19 11:42:00,
2013-04-19 07:43:00,44.3,42.4,29.32,SW,232,8.0,29.0,93,0.03,,---,0.32,VWS V14.00,2013-04-19 11:43:00,
2013-04-19 07:46:00,44.2,42.3,29.33,WSW,237,9.0,29.0,93,0.03,,---,0.32,VWS V14.00,2013-04-19 11:46:00,
2013-04-19 07:47:00,44.1,42.2,29.33,SW,223,13.0,29.0,93,0.03,,---,0.32,VWS V14.00,2013-04-19 11:47:00,
2013-04-19 07:48:00,44.1,42.2,29.33,WSW,237,16.0,29.0,93,0.03,,---,0.32,VWS V14.00,2013-04-19 11:48:00,
2013-04-19 07:51:00,43.9,42.0,29.33,SSW,213,15.0,29.0,93,0.03,,---,0.32,VWS V14.00,2013-04-19 11:51:00,
2013-04-19 07:52:00,43.8,41.9,29.33,WNW,284,15.0,29.0,93,0.03,,---,0.32,VWS V14.00,2013-04-19 11:52:00,
2013-04-19 07:53:00,43.8,41.9,29.33,SW,227,10.0,29.0,93,0.03,,---,0.32,VWS V14.00,2013-04-19 11:53:00,
2013-04-19 07:56:00,43.6,41.7,29.33,SSW,208,13.0,29.0,93,0.03,,---,0.32,VWS V14.00,2013-04-19 11:56:00,
2013-04-19 07:57:00,43.5,41.6,29.33,SSW,210,7.0,29.0,93,0.03,,---,0.32,VWS V14.00,2013-04-19 11:57:00,
2013-04-19 07:58:00,43.5,41.6,29.33,SW,216,13.0,29.0,93,0.03,,---,0.32,VWS V14.00,2013-04-19 11:58:00,
2013-04-19 07:59:00,43.5,41.6,29.33,SW,232,6.0,29.0,93,0.04,,---,0.33,VWS V14.00,2013-04-19 11:59:00,
2013-04-19 08:00:00,43.3,41.4,29.35,SSW,213,8.0,29.0,93,0.04,,---,0.33,VWS V14.00,2013-04-19 12:00:00,
2013-04-19 08:01:00,43.3,41.4,29.35,SSW,210,10.0,29.0,93,0.04,,---,0.33,VWS V14.00,2013-04-19 12:01:00,
2013-04-19 08:02:00,43.3,41.4,29.35,SW,217,22.0,25.0,93,0.02,,---,0.33,VWS V14.00,2013-04-19 12:02:00,
2013-04-19 08:03:00,43.3,41.4,29.35,West,267,14.0,25.0,93,0.02,,---,0.33,VWS V14.00,2013-04-19 12:03:00,
2013-04-19 08:04:00,43.2,41.3,29.35,SW,226,15.0,25.0,93,0.02,,---,0.33,VWS V14.00,2013-04-19 12:04:00,
2013-04-19 08:06:00,43.1,41.2,29.35,West,270,14.0,25.0,93,0.02,,---,0.33,VWS V14.00,2013-04-19 12:06:00,
2013-04-19 08:07:00,42.9,41.0,29.35,SW,229,17.0,25.0,93,0.02,,---,0.33,VWS V14.00,2013-04-19 12:07:00,
2013-04-19 08:08:00,42.9,41.0,29.35,SW,230,16.0,25.0,93,0.02,,---,0.33,VWS V14.00,2013-04-19 12:08:00,
2013-04-19 08:09:00,42.8,40.9,29.35,SW,219,15.0,25.0,93,0.02,,---,0.33,VWS V14.00,2013-04-19 12:09:00,
2013-04-19 08:11:00,42.8,40.9,29.35,WSW,254,11.0,25.0,93,0.02,,---,0.33,VWS V14.00,2013-04-19 12:11:00,
2013-04-19 08:13:00,42.6,40.7,29.35,WSW,240,22.0,25.0,93,0.02,,---,0.33,VWS V14.00,2013-04-19 12:13:00,
2013-04-19 08:14:00,42.5,40.6,29.35,WNW,288,13.0,25.0,93,0.02,,---,0.33,VWS V14.00,2013-04-19 12:14:00,
2013-04-19 08:16:00,42.5,40.6,29.35,SW,234,8.0,25.0,93,0.02,,---,0.33,VWS V14.00,2013-04-19 12:16:00,
2013-04-19 08:18:00,42.5,40.6,29.35,West,278,13.0,25.0,93,0.02,,---,0.33,VWS V14.00,2013-04-19 12:18:00,
2013-04-19 08:19:00,42.5,40.6,29.35,WSW,247,8.0,25.0,93,0.02,,---,0.33,VWS V14.00,2013-04-19 12:19:00,
2013-04-19 08:21:00,42.3,40.4,29.35,WSW,241,6.0,25.0,93,0.02,,---,0.33,VWS V14.00,2013-04-19 12:21:00,
2013-04-19 08:23:00,42.3,40.4,29.35,SSW,212,13.0,25.0,93,0.02,,---,0.33,VWS V14.00,2013-04-19 12:23:00,
2013-04-19 08:24:00,42.2,40.3,29.35,SW,227,14.0,25.0,93,0.02,,---,0.33,VWS V14.00,2013-04-19 12:24:00,
2013-04-19 08:25:00,42.2,40.3,29.35,West,277,11.0,25.0,93,0.02,,---,0.33,VWS V14.00,2013-04-19 12:25:00,
2013-04-19 08:26:00,42.1,40.2,29.35,SW,219,10.0,25.0,93,0.02,,---,0.33,VWS V14.00,2013-04-19 12:26:00,
2013-04-19 08:28:00,42.1,40.2,29.35,SW,220,10.0,25.0,93,0.02,,---,0.33,VWS V14.00,2013-04-19 12:28:00,
2013-04-19 08:29:00,42.1,40.2,29.35,WNW,289,13.0,25.0,93,0.02,,---,0.33,VWS V14.00,2013-04-19 12:29:00,
2013-04-19 08:30:00,42.1,40.2,29.35,WSW,256,10.0,25.0,93,0.02,,---,0.33,VWS V14.00,2013-04-19 12:30:00,
2013-04-19 08:32:00,42.1,40.2,29.36,WSW,258,15.0,25.0,93,0.02,,---,0.33,VWS V14.00,2013-04-19 12:32:00,
2013-04-19 08:33:00,42.1,40.0,29.36,SW,233,10.0,25.0,92,0.02,,---,0.33,VWS V14.00,2013-04-19 12:33:00,
2013-04-19 08:34:00,42.1,40.0,29.36,SW,232,18.0,25.0,92,0.02,,---,0.33,VWS V14.00,2013-04-19 12:34:00,
2013-04-19 08:35:00,42.1,40.0,29.36,SW,219,7.0,25.0,92,0.02,,---,0.33,VWS V14.00,2013-04-19 12:35:00,
2013-04-19 08:37:00,42.1,40.0,29.36,WSW,251,10.0,25.0,92,0.02,,---,0.33,VWS V14.00,2013-04-19 12:37:00,
2013-04-19 08:38:00,42.1,40.0,29.36,WSW,246,17.0,25.0,92,0.02,,---,0.33,VWS V14.00,2013-04-19 12:38:00,
2013-04-19 08:39:00,41.9,39.8,29.36,WSW,243,11.0,25.0,92,0.02,,---,0.33,VWS V14.00,2013-04-19 12:39:00,
2013-04-19 08:40:00,41.9,39.8,29.36,West,274,18.0,25.0,92,0.02,,---,0.33,VWS V14.00,2013-04-19 12:40:00,
2013-04-19 08:42:00,41.8,39.7,29.36,West,280,17.0,25.0,92,0.02,,---,0.33,VWS V14.00,2013-04-19 12:42:00,
2013-04-19 08:43:00,41.8,39.7,29.36,West,280,13.0,25.0,92,0.02,,---,0.33,VWS V14.00,2013-04-19 12:43:00,
2013-04-19 08:45:00,41.8,39.7,29.36,SW,216,21.0,25.0,92,0.02,,---,0.33,VWS V14.00,2013-04-19 12:45:00,
2013-04-19 08:47:00,41.6,39.5,29.37,WNW,292,14.0,26.0,92,0.02,,---,0.33,VWS V14.00,2013-04-19 12:47:00,
2013-04-19 08:49:00,41.5,39.3,29.37,West,281,28.0,28.0,92,0.02,,---,0.33,VWS V14.00,2013-04-19 12:49:00,
2013-04-19 08:50:00,41.3,38.9,29.37,West,263,20.0,28.0,91,0.02,,---,0.33,VWS V14.00,2013-04-19 12:50:00,
2013-04-19 08:51:00,41.2,38.8,29.37,WSW,248,15.0,28.0,91,0.02,,---,0.33,VWS V14.00,2013-04-19 12:51:00,
2013-04-19 08:52:00,41.1,38.7,29.37,WNW,285,20.0,28.0,91,0.02,,---,0.33,VWS V14.00,2013-04-19 12:52:00,
2013-04-19 08:54:00,40.9,38.5,29.37,WNW,294,14.0,28.0,91,0.02,,---,0.33,VWS V14.00,2013-04-19 12:54:00,
2013-04-19 08:55:00,40.8,38.4,29.37,SW,222,17.0,28.0,91,0.02,,---,0.33,VWS V14.00,2013-04-19 12:55:00,
2013-04-19 08:56:00,40.6,38.2,29.37,SW,224,11.0,28.0,91,0.02,,---,0.33,VWS V14.00,2013-04-19 12:56:00,
2013-04-19 08:59:00,40.5,38.1,29.37,West,265,17.0,17.0,91,0.02,,---,0.33,VWS V14.00,2013-04-19 12:59:00,
2013-04-19 09:00:00,40.5,38.1,29.37,SW,224,11.0,22.0,91,0.02,,---,0.33,VWS V14.00,2013-04-19 13:00:00,
2013-04-19 09:01:00,40.3,37.9,29.38,West,263,25.0,25.0,91,0.02,,---,0.33,VWS V14.00,2013-04-19 13:01:00,
2013-04-19 09:12:00,39.9,37.5,29.38,SW,236,15.0,26.0,91,0.00,,---,0.33,VWS V14.00,2013-04-19 13:12:00,
2013-04-19 09:17:00,39.9,37.5,29.38,SSW,212,16.0,26.0,91,0.00,,---,0.33,VWS V14.00,2013-04-19 13:17:00,
2013-04-19 09:22:00,39.8,37.1,29.38,SW,227,9.0,26.0,90,0.00,,---,0.33,VWS V14.00,2013-04-19 13:22:00,
2013-04-19 09:23:00,39.8,37.1,29.38,NW,312,13.0,26.0,90,0.00,,---,0.33,VWS V14.00,2013-04-19 13:23:00,
2013-04-19 09:27:00,39.8,37.1,29.38,SW,236,8.0,26.0,90,0.00,,---,0.33,VWS V14.00,2013-04-19 13:27:00,
2013-04-19 09:28:00,39.8,37.1,29.38,SW,230,13.0,26.0,90,0.00,,---,0.33,VWS V14.00,2013-04-19 13:28:00,
2013-04-19 09:32:00,39.9,37.2,29.39,WSW,237,7.0,26.0,90,0.00,,---,0.33,VWS V14.00,2013-04-19 13:32:00,
2013-04-19 09:33:00,39.9,37.2,29.39,SSW,209,7.0,26.0,90,0.00,,---,0.33,VWS V14.00,2013-04-19 13:33:00,
2013-04-19 09:35:00,39.9,37.2,29.39,WNW,298,14.0,26.0,90,0.00,,---,0.33,VWS V14.00,2013-04-19 13:35:00,
2013-04-19 09:37:00,39.8,37.1,29.39,SW,236,8.0,32.0,90,0.00,,---,0.33,VWS V14.00,2013-04-19 13:37:00,
2013-04-19 09:38:00,39.8,37.1,29.39,SW,223,6.0,32.0,90,0.00,,---,0.33,VWS V14.00,2013-04-19 13:38:00,
2013-04-19 09:40:00,39.6,36.6,29.39,SW,230,18.0,32.0,89,0.00,,---,0.33,VWS V14.00,2013-04-19 13:40:00,
2013-04-19 09:42:00,39.5,36.5,29.39,SW,229,21.0,32.0,89,0.00,,---,0.33,VWS V14.00,2013-04-19 13:42:00,
2013-04-19 09:43:00,39.5,36.5,29.39,SW,223,15.0,32.0,89,0.00,,---,0.33,VWS V14.00,2013-04-19 13:43:00,
2013-04-19 09:45:00,39.3,36.0,29.39,WSW,241,9.0,32.0,88,0.00,,---,0.33,VWS V14.00,2013-04-19 13:45:00,
2013-04-19 09:47:00,39.3,36.0,29.39,SSW,202,13.0,32.0,88,0.00,,---,0.33,VWS V14.00,2013-04-19 13:47:00,
2013-04-19 09:48:00,39.3,36.0,29.39,West,278,23.0,32.0,88,0.00,,---,0.33,VWS V14.00,2013-04-19 13:48:00,
2013-04-19 09:50:00,39.3,36.0,29.39,SSW,213,8.0,32.0,88,0.00,,---,0.33,VWS V14.00,2013-04-19 13:50:00,
2013-04-19 09:52:00,39.5,36.2,29.39,SSW,196,9.0,32.0,88,0.00,,---,0.33,VWS V14.00,2013-04-19 13:52:00,
2013-04-19 09:53:00,39.5,36.2,29.39,SW,234,10.0,32.0,88,0.00,,---,0.33,VWS V14.00,2013-04-19 13:53:00,
2013-04-19 09:55:00,39.5,36.2,29.39,WNW,294,13.0,32.0,88,0.00,,---,0.33,VWS V14.00,2013-04-19 13:55:00,
2013-04-19 09:57:00,39.3,35.8,29.39,WNW,285,18.0,32.0,87,0.00,,---,0.33,VWS V14.00,2013-04-19 13:57:00,
2013-04-19 09:58:00,39.3,35.8,29.39,SW,229,20.0,32.0,87,0.00,,---,0.33,VWS V14.00,2013-04-19 13:58:00,
2013-04-19 09:59:00,39.3,35.8,29.39,SW,236,13.0,32.0,87,0.00,,---,0.33,VWS V14.00,2013-04-19 13:59:00,
2013-04-19 10:00:00,39.2,35.4,29.39,SSW,205,9.0,32.0,86,0.00,,---,0.33,VWS V14.00,2013-04-19 14:00:00,
2013-04-19 10:02:00,39.1,35.3,29.39,SW,219,31.0,31.0,86,0.00,,---,0.33,VWS V14.00,2013-04-19 14:02:00,
2013-04-19 10:03:00,39.1,35.3,29.39,SW,223,20.0,31.0,86,0.00,,---,0.33,VWS V14.00,2013-04-19 14:03:00,
2013-04-19 10:04:00,39.1,35.0,29.39,WSW,243,26.0,31.0,85,0.00,,---,0.33,VWS V14.00,2013-04-19 14:04:00,
2013-04-19 10:05:00,39.1,35.0,29.39,SW,227,15.0,31.0,85,0.00,,---,0.33,VWS V14.00,2013-04-19 14:05:00,
2013-04-19 10:08:00,38.9,34.5,29.39,SSW,199,18.0,31.0,84,0.00,,---,0.33,VWS V14.00,2013-04-19 14:08:00,
2013-04-19 10:09:00,38.9,34.5,29.39,SW,222,20.0,31.0,84,0.00,,---,0.33,VWS V14.00,2013-04-19 14:09:00,
2013-04-19 10:10:00,38.9,34.2,29.39,SSW,206,10.0,31.0,83,0.00,,---,0.33,VWS V14.00,2013-04-19 14:10:00,
2013-04-19 10:13:00,38.9,34.2,29.39,SW,226,15.0,31.0,83,0.00,,---,0.33,VWS V14.00,2013-04-19 14:13:00,
2013-04-19 10:14:00,38.9,34.2,29.39,SW,217,20.0,31.0,83,0.00,,---,0.33,VWS V14.00,2013-04-19 14:14:00,
2013-04-19 10:16:00,38.9,33.9,29.40,SSW,210,13.0,31.0,82,0.00,,---,0.33,VWS V14.00,2013-04-19 14:16:00,
2013-04-19 10:18:00,38.9,33.9,29.40,SW,217,15.0,31.0,82,0.00,,---,0.33,VWS V14.00,2013-04-19 14:18:00,
2013-04-19 10:19:00,38.9,33.9,29.40,SW,223,9.0,31.0,82,0.00,,---,0.33,VWS V14.00,2013-04-19 14:19:00,
2013-04-19 10:21:00,38.9,33.6,29.40,SSW,209,15.0,31.0,81,0.00,,---,0.33,VWS V14.00,2013-04-19 14:21:00,
2013-04-19 10:23:00,39.1,33.8,29.40,WNW,294,16.0,31.0,81,0.00,,---,0.33,VWS V14.00,2013-04-19 14:23:00,
2013-04-19 10:24:00,39.1,33.8,29.40,SW,223,10.0,31.0,81,0.00,,---,0.33,VWS V14.00,2013-04-19 14:24:00,
2013-04-19 10:26:00,39.1,33.5,29.40,SW,227,11.0,31.0,80,0.00,,---,0.33,VWS V14.00,2013-04-19 14:26:00,
2013-04-19 10:28:00,39.2,33.2,29.40,SW,229,9.0,31.0,79,0.00,,---,0.33,VWS V14.00,2013-04-19 14:28:00,
2013-04-19 10:29:00,39.2,33.6,29.40,SW,215,11.0,31.0,80,0.00,,---,0.33,VWS V14.00,2013-04-19 14:29:00,
2013-04-19 10:30:00,39.2,33.6,29.40,WSW,247,10.0,31.0,80,0.00,,---,0.33,VWS V14.00,2013-04-19 14:30:00,
2013-04-19 10:31:00,39.2,33.2,29.41,SW,217,13.0,31.0,79,0.00,,---,0.33,VWS V14.00,2013-04-19 14:31:00,
2013-04-19 10:33:00,39.3,33.3,29.41,SW,229,10.0,31.0,79,0.00,,---,0.33,VWS V14.00,2013-04-19 14:33:00,
2013-04-19 10:34:00,39.2,33.2,29.41,West,278,15.0,31.0,79,0.00,,---,0.33,VWS V14.00,2013-04-19 14:34:00,
2013-04-19 10:35:00,39.3,33.3,29.41,SSW,199,10.0,31.0,79,0.00,,---,0.33,VWS V14.00,2013-04-19 14:35:00,
2013-04-19 10:36:00,39.3,33.3,29.41,SW,232,20.0,31.0,79,0.00,,---,0.33,VWS V14.00,2013-04-19 14:36:00,
2013-04-19 10:38:00,39.3,33.0,29.41,SSW,202,15.0,31.0,78,0.00,,---,0.33,VWS V14.00,2013-04-19 14:38:00,
2013-04-19 10:39:00,39.3,32.7,29.41,West,268,18.0,31.0,77,0.00,,---,0.33,VWS V14.00,2013-04-19 14:39:00,
2013-04-19 10:40:00,39.3,32.7,29.41,SW,224,16.0,31.0,77,0.00,,---,0.33,VWS V14.00,2013-04-19 14:40:00,
2013-04-19 10:41:00,39.3,32.7,29.41,SSW,198,10.0,31.0,77,0.00,,---,0.33,VWS V14.00,2013-04-19 14:41:00,
2013-04-19 10:44:00,39.5,32.9,29.41,WSW,240,15.0,31.0,77,0.00,,---,0.33,VWS V14.00,2013-04-19 14:44:00,
2013-04-19 10:45:00,39.3,32.4,29.41,WSW,241,14.0,31.0,76,0.00,,---,0.33,VWS V14.00,2013-04-19 14:45:00,
2013-04-19 10:46:00,39.3,32.4,29.41,SW,233,15.0,31.0,76,0.00,,---,0.33,VWS V14.00,2013-04-19 14:46:00,
2013-04-19 10:49:00,39.5,32.9,29.41,SSW,205,14.0,31.0,77,0.00,,---,0.33,VWS V14.00,2013-04-19 14:49:00,
2013-04-19 10:50:00,39.5,32.9,29.41,SSW,205,14.0,31.0,77,0.00,,---,0.33,VWS V14.00,2013-04-19 14:50:00,
2013-04-19 10:51:00,39.3,32.7,29.41,SW,226,9.0,31.0,77,0.00,,---,0.33,VWS V14.00,2013-04-19 14:51:00,
2013-04-19 10:54:00,39.5,32.9,29.41,SSW,213,16.0,31.0,77,0.00,,---,0.33,VWS V14.00,2013-04-19 14:54:00,
2013-04-19 10:55:00,39.3,32.7,29.41,SW,217,10.0,31.0,77,0.00,,---,0.33,VWS V14.00,2013-04-19 14:55:00,
2013-04-19 10:56:00,39.3,32.7,29.41,WSW,248,14.0,31.0,77,0.00,,---,0.33,VWS V14.00,2013-04-19 14:56:00,
2013-04-19 10:59:00,39.3,32.7,29.41,SW,219,18.0,31.0,77,0.00,,---,0.33,VWS V14.00,2013-04-19 14:59:00,
2013-04-19 11:00:00,39.3,32.7,29.41,WSW,254,8.0,31.0,77,0.00,,---,0.33,VWS V14.00,2013-04-19 15:00:00,
2013-04-19 11:01:00,39.2,32.6,29.42,NW,315,15.0,31.0,77,0.00,,---,0.33,VWS V14.00,2013-04-19 15:01:00,
2013-04-19 11:04:00,39.2,32.6,29.42,SSW,213,15.0,26.0,77,0.00,,---,0.33,VWS V14.00,2013-04-19 15:04:00,
2013-04-19 11:05:00,39.2,32.6,29.42,SSW,209,14.0,26.0,77,0.00,,---,0.33,VWS V14.00,2013-04-19 15:05:00,
2013-04-19 11:07:00,39.2,32.3,29.42,West,272,16.0,26.0,76,0.00,,---,0.33,VWS V14.00,2013-04-19 15:07:00,
2013-04-19 11:10:00,39.2,32.6,29.42,SW,236,16.0,26.0,77,0.00,,---,0.33,VWS V14.00,2013-04-19 15:10:00,
2013-04-19 11:12:00,39.2,32.6,29.42,WSW,254,8.0,26.0,77,0.00,,---,0.33,VWS V14.00,2013-04-19 15:12:00,
2013-04-19 11:15:00,39.2,32.6,29.42,SSW,205,22.0,26.0,77,0.00,,---,0.33,VWS V14.00,2013-04-19 15:15:00,
2013-04-19 11:16:00,39.2,32.6,29.43,SW,220,11.0,26.0,77,0.00,,---,0.33,VWS V14.00,2013-04-19 15:16:00,
2013-04-19 11:17:00,39.2,32.6,29.43,SSW,212,14.0,31.0,77,0.00,,---,0.33,VWS V14.00,2013-04-19 15:17:00,
2013-04-19 11:20:00,39.2,32.6,29.43,SW,219,17.0,32.0,77,0.00,,---,0.33,VWS V14.00,2013-04-19 15:20:00,
2013-04-19 11:21:00,39.2,32.6,29.43,SW,220,20.0,32.0,77,0.00,,---,0.33,VWS V14.00,2013-04-19 15:21:00,
2013-04-19 11:22:00,39.2,32.3,29.43,SW,226,13.0,32.0,76,0.00,,---,0.33,VWS V14.00,2013-04-19 15:22:00,
2013-04-19 11:25:00,39.2,32.3,29.43,SSW,213,13.0,32.0,76,0.00,,---,0.33,VWS V14.00,2013-04-19 15:25:00,
2013-04-19 11:26:00,39.2,32.3,29.43,SW,216,18.0,32.0,76,0.00,,---,0.33,VWS V14.00,2013-04-19 15:26:00,
2013-04-19 11:27:00,39.2,32.3,29.43,SW,222,18.0,32.0,76,0.00,,---,0.33,VWS V14.00,2013-04-19 15:27:00,
2013-04-19 11:30:00,39.2,32.3,29.43,SW,217,14.0,32.0,76,0.00,,---,0.33,VWS V14.00,2013-04-19 15:30:00,
2013-04-19 11:31:00,39.2,32.3,29.44,SW,234,11.0,32.0,76,0.00,,---,0.33,VWS V14.00,2013-04-19 15:31:00,
2013-04-19 11:32:00,39.2,32.3,29.44,SW,220,16.0,32.0,76,0.00,,---,0.33,VWS V14.00,2013-04-19 15:32:00,
2013-04-19 11:35:00,39.3,32.4,29.44,SSW,213,7.0,32.0,76,0.00,,---,0.33,VWS V14.00,2013-04-19 15:35:00,
2013-04-19 11:36:00,39.3,32.4,29.44,SSE,168,8.0,32.0,76,0.00,,---,0.33,VWS V14.00,2013-04-19 15:36:00,
2013-04-19 11:37:00,39.3,32.4,29.44,WSW,237,13.0,32.0,76,0.00,,---,0.33,VWS V14.00,2013-04-19 15:37:00,
2013-04-19 11:40:00,39.3,32.0,29.44,SW,227,10.0,32.0,75,0.00,,---,0.33,VWS V14.00,2013-04-19 15:40:00,
2013-04-19 11:41:00,39.3,32.0,29.44,SW,216,24.0,32.0,75,0.00,,---,0.33,VWS V14.00,2013-04-19 15:41:00,
2013-04-19 11:42:00,39.3,32.0,29.44,SW,226,17.0,32.0,75,0.00,,---,0.33,VWS V14.00,2013-04-19 15:42:00,
2013-04-19 11:45:00,39.5,31.9,29.44,SW,234,21.0,32.0,74,0.00,,---,0.33,VWS V14.00,2013-04-19 15:45:00,
2013-04-19 11:46:00,39.5,31.6,29.45,SW,236,16.0,32.0,73,0.00,,---,0.33,VWS V14.00,2013-04-19 15:46:00,
2013-04-19 11:47:00,39.5,31.6,29.45,SSW,206,11.0,32.0,73,0.00,,---,0.33,VWS V14.00,2013-04-19 15:47:00,
2013-04-19 11:50:00,39.6,31.0,29.45,SW,217,32.0,35.0,71,0.00,,---,0.33,VWS V14.00,2013-04-19 15:50:00,
2013-04-19 11:51:00,39.6,31.0,29.45,WSW,241,17.0,35.0,71,0.00,,---,0.33,VWS V14.00,2013-04-19 15:51:00,
2013-04-19 11:52:00,39.6,31.0,29.45,SW,226,16.0,35.0,71,0.00,,---,0.33,VWS V14.00,2013-04-19 15:52:00,
2013-04-19 11:55:00,39.9,31.3,29.45,SW,215,13.0,35.0,71,0.00,,---,0.33,VWS V14.00,2013-04-19 15:55:00,
2013-04-19 11:57:00,39.9,31.3,29.45,SSW,209,11.0,35.0,71,0.00,,---,0.33,VWS V14.00,2013-04-19 15:57:00,
2013-04-19 12:00:00,40.2,31.2,29.45,WNW,296,17.0,35.0,70,0.00,,---,0.33,VWS V14.00,2013-04-19 16:00:00,
2013-04-19 12:01:00,40.2,31.6,29.45,SW,234,21.0,35.0,71,0.00,,---,0.33,VWS V14.00,2013-04-19 16:01:00,
2013-04-19 12:02:00,40.2,31.2,29.45,SW,234,18.0,22.0,70,0.00,,---,0.33,VWS V14.00,2013-04-19 16:02:00,
2013-04-19 12:06:00,40.1,30.8,29.45,SSW,199,11.0,34.0,69,0.00,,---,0.33,VWS V14.00,2013-04-19 16:06:00,
2013-04-19 12:07:00,40.1,30.4,29.45,WNW,287,18.0,34.0,68,0.00,,---,0.33,VWS V14.00,2013-04-19 16:07:00,
2013-04-19 12:08:00,40.1,30.4,29.45,SW,216,25.0,34.0,68,0.00,,---,0.33,VWS V14.00,2013-04-19 16:08:00,
2013-04-19 12:11:00,39.9,30.2,29.45,SSW,212,16.0,35.0,68,0.00,,---,0.33,VWS V14.00,2013-04-19 16:11:00,
2013-04-19 12:12:00,39.9,30.6,29.45,SW,233,25.0,35.0,69,0.00,,---,0.33,VWS V14.00,2013-04-19 16:12:00,
2013-04-19 12:13:00,39.8,30.5,29.45,WNW,285,13.0,35.0,69,0.00,,---,0.33,VWS V14.00,2013-04-19 16:13:00,
2013-04-19 12:16:00,39.8,30.5,29.46,West,280,17.0,35.0,69,0.00,,---,0.33,VWS V14.00,2013-04-19 16:16:00,
2013-04-19 12:17:00,39.8,30.5,29.46,South,188,24.0,35.0,69,0.00,,---,0.33,VWS V14.00,2013-04-19 16:17:00,
2013-04-19 12:18:00,39.8,30.5,29.46,SSW,210,31.0,35.0,69,0.00,,---,0.33,VWS V14.00,2013-04-19 16:18:00,
2013-04-19 12:22:00,39.6,30.3,29.46,SW,230,20.0,35.0,69,0.00,,---,0.33,VWS V14.00,2013-04-19 16:22:00,
2013-04-19 12:23:00,39.6,30.3,29.46,SW,230,13.0,35.0,69,0.00,,---,0.33,VWS V14.00,2013-04-19 16:23:00,
2013-04-19 12:27:00,39.5,30.2,29.46,SW,219,18.0,37.0,69,0.00,,---,0.33,VWS V14.00,2013-04-19 16:27:00,
2013-04-19 12:28:00,39.5,30.2,29.46,WSW,237,15.0,37.0,69,0.00,,---,0.33,VWS V14.00,2013-04-19 16:28:00,
2013-04-19 12:32:00,39.3,30.0,29.45,West,281,22.0,37.0,69,0.00,,---,0.33,VWS V14.00,2013-04-19 16:32:00,
2013-04-19 12:33:00,39.3,30.0,29.45,SW,227,16.0,37.0,69,0.00,,---,0.33,VWS V14.00,2013-04-19 16:33:00,
2013-04-19 12:37:00,39.2,29.9,29.45,SW,216,16.0,37.0,69,0.00,,---,0.33,VWS V14.00,2013-04-19 16:37:00,
2013-04-19 12:38:00,39.2,30.2,29.45,SW,227,9.0,37.0,70,0.00,,---,0.33,VWS V14.00,2013-04-19 16:38:00,
2013-04-19 12:42:00,39.2,30.2,29.45,SSW,208,20.0,37.0,70,0.00,,---,0.33,VWS V14.00,2013-04-19 16:42:00,
2013-04-19 12:43:00,39.2,30.2,29.45,SSW,206,29.0,37.0,70,0.00,,---,0.33,VWS V14.00,2013-04-19 16:43:00,
2013-04-19 12:44:00,39.2,30.2,29.45,SW,217,10.0,37.0,70,0.00,,---,0.33,VWS V14.00,2013-04-19 16:44:00,
2013-04-19 12:47:00,39.2,30.6,29.45,SSW,210,20.0,37.0,71,0.00,,---,0.33,VWS V14.00,2013-04-19 16:47:00,
2013-04-19 12:48:00,39.2,30.6,29.45,SW,220,33.0,37.0,71,0.00,,---,0.33,VWS V14.00,2013-04-19 16:48:00,
2013-04-19 12:49:00,39.2,30.6,29.45,SW,220,16.0,37.0,71,0.00,,---,0.33,VWS V14.00,2013-04-19 16:49:00,
2013-04-19 12:52:00,39.2,31.0,29.45,SSW,199,15.0,37.0,72,0.00,,---,0.33,VWS V14.00,2013-04-19 16:52:00,
2013-04-19 12:53:00,39.2,31.0,29.45,WSW,247,9.0,37.0,72,0.00,,---,0.33,VWS V14.00,2013-04-19 16:53:00,
2013-04-19 12:54:00,39.1,30.9,29.45,WSW,237,25.0,37.0,72,0.00,,---,0.33,VWS V14.00,2013-04-19 16:54:00,
2013-04-19 12:57:00,39.3,31.4,29.45,WSW,247,17.0,37.0,73,0.00,,---,0.33,VWS V14.00,2013-04-19 16:57:00,
2013-04-19 12:58:00,39.3,31.4,29.45,WNW,282,7.0,37.0,73,0.00,,---,0.33,VWS V14.00,2013-04-19 16:58:00,
2013-04-19 12:59:00,39.3,31.4,29.45,SSW,210,14.0,37.0,73,0.00,,---,0.33,VWS V14.00,2013-04-19 16:59:00,
2013-04-19 13:00:00,39.3,31.4,29.46,SSW,209,11.0,37.0,73,0.00,,---,0.33,VWS V14.00,2013-04-19 17:00:00,
2013-04-19 13:02:00,39.5,31.6,29.46,SSW,203,22.0,22.0,73,0.00,,---,0.33,VWS V14.00,2013-04-19 17:02:00,
2013-04-19 13:03:00,39.5,31.6,29.46,SSW,208,16.0,31.0,73,0.00,,---,0.33,VWS V14.00,2013-04-19 17:03:00,
2013-04-19 13:04:00,39.5,31.6,29.46,SSW,212,13.0,31.0,73,0.00,,---,0.33,VWS V14.00,2013-04-19 17:04:00,
2013-04-19 13:08:00,39.5,31.2,29.46,SW,220,30.0,43.0,72,0.00,,---,0.33,VWS V14.00,2013-04-19 17:08:00,
2013-04-19 13:09:00,39.3,30.7,29.46,WSW,248,7.0,43.0,71,0.00,,---,0.33,VWS V14.00,2013-04-19 17:09:00,
2013-04-19 13:13:00,39.5,31.2,29.46,SSW,209,10.0,43.0,72,0.00,,---,0.33,VWS V14.00,2013-04-19 17:13:00,
2013-04-19 13:14:00,39.6,31.3,29.46,SSW,203,16.0,43.0,72,0.00,,---,0.33,VWS V14.00,2013-04-19 17:14:00,
2013-04-19 13:18:00,39.9,31.3,29.46,SSE,148,14.0,43.0,71,0.00,,---,0.33,VWS V14.00,2013-04-19 17:18:00,
2013-04-19 13:19:00,39.9,30.6,29.46,SW,230,21.0,43.0,69,0.00,,---,0.33,VWS V14.00,2013-04-19 17:19:00,
2013-04-19 13:23:00,40.1,30.0,29.46,SW,216,25.0,43.0,67,0.00,,---,0.33,VWS V14.00,2013-04-19 17:23:00,
2013-04-19 13:24:00,40.2,30.1,29.46,SSW,210,13.0,43.0,67,0.00,,---,0.33,VWS V14.00,2013-04-19 17:24:00,
2013-04-19 13:25:00,40.2,30.1,29.46,SSW,213,14.0,43.0,67,0.00,,---,0.33,VWS V14.00,2013-04-19 17:25:00,
2013-04-19 13:28:00,40.2,29.8,29.46,SW,217,13.0,43.0,66,0.00,,---,0.33,VWS V14.00,2013-04-19 17:28:00,
2013-04-19 13:29:00,40.3,29.9,29.46,WSW,257,14.0,43.0,66,0.00,,---,0.33,VWS V14.00,2013-04-19 17:29:00,
2013-04-19 13:30:00,40.3,29.9,29.46,SW,224,13.0,43.0,66,0.00,,---,0.33,VWS V14.00,2013-04-19 17:30:00,
2013-04-19 13:33:00,40.3,29.9,29.47,WSW,240,15.0,43.0,66,0.00,,---,0.33,VWS V14.00,2013-04-19 17:33:00,
2013-04-19 13:35:00,40.3,30.2,29.47,SW,234,10.0,43.0,67,0.00,,---,0.33,VWS V14.00,2013-04-19 17:35:00,
2013-04-19 13:38:00,40.5,30.4,29.47,SSW,206,20.0,43.0,67,0.00,,---,0.33,VWS V14.00,2013-04-19 17:38:00,
2013-04-19 13:39:00,40.5,30.4,29.47,SSW,199,7.0,43.0,67,0.00,,---,0.33,VWS V14.00,2013-04-19 17:39:00,
2013-04-19 13:40:00,40.5,30.0,29.47,SSW,209,17.0,43.0,66,0.00,,---,0.33,VWS V14.00,2013-04-19 17:40:00,
2013-04-19 13:43:00,40.5,29.7,29.47,SW,232,10.0,43.0,65,0.00,,---,0.33,VWS V14.00,2013-04-19 17:43:00,
2013-04-19 13:44:00,40.6,29.8,29.47,WSW,248,8.0,43.0,65,0.00,,---,0.33,VWS V14.00,2013-04-19 17:44:00,
2013-04-19 13:45:00,40.6,30.1,29.47,WNW,294,13.0,43.0,66,0.00,,---,0.33,VWS V14.00,2013-04-19 17:45:00,
2013-04-19 13:48:00,40.8,30.3,29.46,SSW,198,9.0,43.0,66,0.00,,---,0.33,VWS V14.00,2013-04-19 17:48:00,
2013-04-19 13:49:00,40.8,30.3,29.46,WSW,246,10.0,43.0,66,0.00,,---,0.33,VWS V14.00,2013-04-19 17:49:00,
2013-04-19 13:50:00,40.8,30.7,29.46,SSW,198,10.0,43.0,67,0.00,,---,0.33,VWS V14.00,2013-04-19 17:50:00,
2013-04-19 13:53:00,40.8,30.3,29.46,SW,232,23.0,43.0,66,0.00,,---,0.33,VWS V14.00,2013-04-19 17:53:00,
2013-04-19 13:54:00,40.8,30.0,29.46,SSW,208,15.0,43.0,65,0.00,,---,0.33,VWS V14.00,2013-04-19 17:54:00,
2013-04-19 13:55:00,40.8,30.0,29.46,SSW,193,25.0,43.0,65,0.00,,---,0.33,VWS V14.00,2013-04-19 17:55:00,
2013-04-19 13:59:00,40.6,29.4,29.46,SW,215,20.0,43.0,64,0.00,,---,0.33,VWS V14.00,2013-04-19 17:59:00,
2013-04-19 14:00:00,40.6,29.8,29.46,SW,222,16.0,43.0,65,0.00,,---,0.33,VWS V14.00,2013-04-19 18:00:00,
2013-04-19 14:04:00,40.8,30.0,29.46,SW,220,13.0,34.0,65,0.00,,---,0.33,VWS V14.00,2013-04-19 18:04:00,
2013-04-19 14:05:00,40.6,29.4,29.46,SSW,213,32.0,40.0,64,0.00,,---,0.33,VWS V14.00,2013-04-19 18:05:00,
2013-04-19 14:06:00,40.6,29.4,29.46,SW,222,17.0,40.0,64,0.00,,---,0.33,VWS V14.00,2013-04-19 18:06:00,
2013-04-19 14:09:00,40.5,29.3,29.46,WSW,248,20.0,40.0,64,0.00,,---,0.33,VWS V14.00,2013-04-19 18:09:00,
2013-04-19 14:10:00,40.5,29.3,29.46,SSW,209,32.0,40.0,64,0.00,,---,0.33,VWS V14.00,2013-04-19 18:10:00,
2013-04-19 14:11:00,40.5,29.3,29.46,SSW,212,25.0,40.0,64,0.00,,---,0.33,VWS V14.00,2013-04-19 18:11:00,
2013-04-19 14:14:00,40.3,29.5,29.46,SW,215,20.0,40.0,65,0.00,,---,0.33,VWS V14.00,2013-04-19 18:14:00,
2013-04-19 14:15:00,40.5,29.7,29.46,WSW,246,22.0,40.0,65,0.00,,---,0.33,VWS V14.00,2013-04-19 18:15:00,
2013-04-19 14:16:00,40.5,29.7,29.47,SSW,206,16.0,40.0,65,0.00,,---,0.33,VWS V14.00,2013-04-19 18:16:00,
2013-04-19 14:19:00,40.5,29.7,29.47,South,181,22.0,40.0,65,0.00,,---,0.33,VWS V14.00,2013-04-19 18:19:00,
2013-04-19 14:20:00,40.5,29.7,29.47,SW,217,23.0,40.0,65,0.00,,---,0.33,VWS V14.00,2013-04-19 18:20:00,
2013-04-19 14:21:00,40.6,30.1,29.47,WSW,250,13.0,40.0,66,0.00,,---,0.33,VWS V14.00,2013-04-19 18:21:00,
2013-04-19 14:24:00,40.8,30.0,29.47,SW,220,18.0,40.0,65,0.00,,---,0.33,VWS V14.00,2013-04-19 18:24:00,
2013-04-19 14:25:00,40.8,29.6,29.47,SSW,202,9.0,40.0,64,0.00,,---,0.33,VWS V14.00,2013-04-19 18:25:00,
2013-04-19 14:26:00,40.8,30.0,29.47,West,261,13.0,40.0,65,0.00,,---,0.33,VWS V14.00,2013-04-19 18:26:00,
2013-04-19 14:29:00,41.1,30.2,29.47,SW,227,20.0,40.0,65,0.00,,---,0.33,VWS V14.00,2013-04-19 18:29:00,
2013-04-19 14:31:00,41.1,30.2,29.47,SSW,196,17.0,40.0,65,0.00,,---,0.33,VWS V14.00,2013-04-19 18:31:00,
2013-04-19 14:32:00,41.2,30.0,29.47,SW,215,20.0,40.0,64,0.00,,---,0.33,VWS V14.00,2013-04-19 18:32:00,
2013-04-19 14:34:00,41.1,29.9,29.47,WSW,243,10.0,40.0,64,0.00,,---,0.33,VWS V14.00,2013-04-19 18:34:00,
2013-04-19 14:36:00,41.1,29.9,29.47,WNW,288,16.0,40.0,64,0.00,,---,0.33,VWS V14.00,2013-04-19 18:36:00,
2013-04-19 14:37:00,40.9,29.7,29.47,WNW,294,17.0,40.0,64,0.00,,---,0.33,VWS V14.00,2013-04-19 18:37:00,
2013-04-19 14:39:00,40.9,29.7,29.47,SW,226,18.0,40.0,64,0.00,,---,0.33,VWS V14.00,2013-04-19 18:39:00,
2013-04-19 14:41:00,40.9,29.7,29.47,SW,234,11.0,40.0,64,0.00,,---,0.33,VWS V14.00,2013-04-19 18:41:00,
2013-04-19 14:42:00,40.9,30.1,29.47,WSW,250,14.0,40.0,65,0.00,,---,0.33,VWS V14.00,2013-04-19 18:42:00,
2013-04-19 14:44:00,40.9,30.1,29.47,SW,215,11.0,40.0,65,0.00,,---,0.33,VWS V14.00,2013-04-19 18:44:00,
2013-04-19 14:46:00,40.9,30.1,29.48,SSW,202,20.0,40.0,65,0.00,,---,0.33,VWS V14.00,2013-04-19 18:46:00,
2013-04-19 14:47:00,40.8,29.6,29.48,SW,229,13.0,40.0,64,0.00,,---,0.33,VWS V14.00,2013-04-19 18:47:00,
2013-04-19 14:48:00,40.8,30.0,29.48,SW,217,21.0,40.0,65,0.00,,---,0.33,VWS V14.00,2013-04-19 18:48:00,
2013-04-19 14:49:00,40.8,30.0,29.48,SW,233,24.0,40.0,65,0.00,,---,0.33,VWS V14.00,2013-04-19 18:49:00,
2013-04-19 14:51:00,40.8,29.6,29.48,SW,226,25.0,40.0,64,0.00,,---,0.33,VWS V14.00,2013-04-19 18:51:00,
2013-04-19 14:52:00,40.8,29.6,29.48,SW,216,17.0,40.0,64,0.00,,---,0.33,VWS V14.00,2013-04-19 18:52:00,
2013-04-19 14:53:00,40.8,29.6,29.48,SSW,208,26.0,40.0,64,0.00,,---,0.33,VWS V14.00,2013-04-19 18:53:00,
2013-04-19 14:54:00,40.8,30.0,29.48,SSW,209,17.0,40.0,65,0.00,,---,0.33,VWS V14.00,2013-04-19 18:54:00,
2013-04-19 14:56:00,40.8,30.0,29.48,SW,220,8.0,40.0,65,0.00,,---,0.33,VWS V14.00,2013-04-19 18:56:00,
2013-04-19 14:57:00,40.8,30.0,29.48,SSW,203,26.0,40.0,65,0.00,,---,0.33,VWS V14.00,2013-04-19 18:57:00,
2013-04-19 14:58:00,40.8,30.0,29.48,WSW,244,8.0,40.0,65,0.00,,---,0.33,VWS V14.00,2013-04-19 18:58:00,
2013-04-19 14:59:00,40.8,29.6,29.48,SW,215,14.0,40.0,64,0.00,,---,0.33,VWS V14.00,2013-04-19 18:59:00,
2013-04-19 15:00:00,40.8,29.6,29.49,WNW,301,16.0,40.0,64,0.00,,---,0.33,VWS V14.00,2013-04-19 19:00:00,
2013-04-19 15:01:00,40.8,29.6,29.49,WNW,301,16.0,40.0,64,0.00,,---,0.33,VWS V14.00,2013-04-19 19:01:00,
2013-04-19 15:02:00,40.9,30.1,29.49,SSW,212,11.0,21.0,65,0.00,,---,0.33,VWS V14.00,2013-04-19 19:02:00,
2013-04-19 15:03:00,40.9,30.1,29.49,SW,223,17.0,21.0,65,0.00,,---,0.33,VWS V14.00,2013-04-19 19:03:00,
2013-04-19 15:04:00,40.9,30.1,29.49,SSW,210,16.0,25.0,65,0.00,,---,0.33,VWS V14.00,2013-04-19 19:04:00,
2013-04-19 15:06:00,41.1,30.2,29.49,SSW,213,14.0,25.0,65,0.00,,---,0.33,VWS V14.00,2013-04-19 19:06:00,
2013-04-19 15:07:00,41.1,29.9,29.49,South,181,15.0,25.0,64,0.00,,---,0.33,VWS V14.00,2013-04-19 19:07:00,
2013-04-19 15:08:00,41.1,29.9,29.49,SW,222,26.0,26.0,64,0.00,,---,0.33,VWS V14.00,2013-04-19 19:08:00,
2013-04-19 15:10:00,41.1,29.9,29.49,SW,230,22.0,40.0,64,0.00,,---,0.33,VWS V14.00,2013-04-19 19:10:00,
2013-04-19 15:11:00,40.9,29.7,29.49,SW,217,22.0,40.0,64,0.00,,---,0.33,VWS V14.00,2013-04-19 19:11:00,
2013-04-19 15:12:00,40.9,29.7,29.49,SW,232,18.0,40.0,64,0.00,,---,0.33,VWS V14.00,2013-04-19 19:12:00,
2013-04-19 15:13:00,40.8,29.6,29.49,SW,219,20.0,40.0,64,0.00,,---,0.33,VWS V14.00,2013-04-19 19:13:00,
2013-04-19 15:15:00,40.8,30.0,29.49,SSW,212,26.0,40.0,65,0.00,,---,0.33,VWS V14.00,2013-04-19 19:15:00,
2013-04-19 15:16:00,40.6,29.4,29.50,SW,229,25.0,40.0,64,0.00,,---,0.33,VWS V14.00,2013-04-19 19:16:00,
2013-04-19 15:17:00,40.6,29.4,29.50,SSW,210,16.0,40.0,64,0.00,,---,0.33,VWS V14.00,2013-04-19 19:17:00,
2013-04-19 15:18:00,40.6,29.4,29.50,SSW,210,10.0,40.0,64,0.00,,---,0.33,VWS V14.00,2013-04-19 19:18:00,
2013-04-19 15:20:00,40.6,29.8,29.50,SSW,210,18.0,40.0,65,0.00,,---,0.33,VWS V14.00,2013-04-19 19:20:00,
2013-04-19 15:21:00,40.6,29.8,29.50,SW,216,17.0,41.0,65,0.00,,---,0.33,VWS V14.00,2013-04-19 19:21:00,
2013-04-19 15:23:00,40.6,29.8,29.50,SW,217,15.0,41.0,65,0.00,,---,0.33,VWS V14.00,2013-04-19 19:23:00,
2013-04-19 15:24:00,40.6,29.8,29.50,SW,220,24.0,41.0,65,0.00,,---,0.33,VWS V14.00,2013-04-19 19:24:00,
2013-04-19 15:25:00,40.6,29.8,29.50,SSW,212,18.0,41.0,65,0.00,,---,0.33,VWS V14.00,2013-04-19 19:25:00,
2013-04-19 15:26:00,40.6,29.8,29.50,WSW,241,7.0,41.0,65,0.00,,---,0.33,VWS V14.00,2013-04-19 19:26:00,
2013-04-19 15:28:00,40.6,29.8,29.50,SW,236,17.0,41.0,65,0.00,,---,0.33,VWS V14.00,2013-04-19 19:28:00,
2013-04-19 15:29:00,40.6,29.8,29.50,WNW,287,21.0,41.0,65,0.00,,---,0.33,VWS V14.00,2013-04-19 19:29:00,
2013-04-19 15:30:00,40.5,29.7,29.51,SSW,203,21.0,41.0,65,0.00,,---,0.33,VWS V14.00,2013-04-19 19:30:00,
2013-04-19 15:32:00,40.5,29.7,29.51,SW,222,26.0,41.0,65,0.00,,---,0.33,VWS V14.00,2013-04-19 19:32:00,
2013-04-19 15:33:00,40.3,29.5,29.51,SW,230,26.0,41.0,65,0.00,,---,0.33,VWS V14.00,2013-04-19 19:33:00,
2013-04-19 15:34:00,40.3,29.5,29.51,SW,232,18.0,41.0,65,0.00,,---,0.33,VWS V14.00,2013-04-19 19:34:00,
2013-04-19 15:36:00,40.2,29.4,29.51,SSW,208,16.0,41.0,65,0.00,,---,0.33,VWS V14.00,2013-04-19 19:36:00,
2013-04-19 15:37:00,40.2,29.4,29.51,SSW,212,29.0,41.0,65,0.00,,---,0.33,VWS V14.00,2013-04-19 19:37:00,
2013-04-19 15:38:00,40.2,29.4,29.51,WSW,239,21.0,41.0,65,0.00,,---,0.33,VWS V14.00,2013-04-19 19:38:00,
2013-04-19 15:39:00,40.2,29.8,29.51,SW,234,22.0,41.0,66,0.00,,---,0.33,VWS V14.00,2013-04-19 19:39:00,
2013-04-19 15:41:00,40.2,29.8,29.51,SSW,205,9.0,41.0,66,0.00,,---,0.33,VWS V14.00,2013-04-19 19:41:00,
2013-04-19 15:42:00,40.2,29.8,29.51,SSW,212,38.0,41.0,66,0.00,,---,0.33,VWS V14.00,2013-04-19 19:42:00,
2013-04-19 15:43:00,40.1,29.7,29.51,SW,217,28.0,41.0,66,0.00,,---,0.33,VWS V14.00,2013-04-19 19:43:00,
2013-04-19 15:45:00,40.1,29.7,29.51,SW,234,14.0,41.0,66,0.00,,---,0.33,VWS V14.00,2013-04-19 19:45:00,
2013-04-19 15:46:00,39.9,29.5,29.52,SW,219,15.0,41.0,66,0.00,,---,0.33,VWS V14.00,2013-04-19 19:46:00,
2013-04-19 15:47:00,39.9,29.5,29.52,West,265,31.0,41.0,66,0.00,,---,0.33,VWS V14.00,2013-04-19 19:47:00,
2013-04-19 15:48:00,39.9,29.9,29.52,SSW,210,17.0,41.0,67,0.00,,---,0.33,VWS V14.00,2013-04-19 19:48:00,
2013-04-19 15:49:00,39.9,29.9,29.52,SSW,200,21.0,41.0,67,0.00,,---,0.33,VWS V14.00,2013-04-19 19:49:00,
2013-04-19 15:50:00,39.9,29.9,29.52,NW,322,18.0,41.0,67,0.00,,---,0.33,VWS V14.00,2013-04-19 19:50:00,
2013-04-19 15:51:00,39.9,29.9,29.52,WSW,248,23.0,41.0,67,0.00,,---,0.33,VWS V14.00,2013-04-19 19:51:00,
2013-04-19 15:52:00,39.9,30.2,29.52,West,260,21.0,41.0,68,0.00,,---,0.33,VWS V14.00,2013-04-19 19:52:00,
2013-04-19 15:54:00,39.9,30.2,29.52,West,268,13.0,41.0,68,0.00,,---,0.33,VWS V14.00,2013-04-19 19:54:00,
2013-04-19 15:56:00,40.1,30.4,29.52,SW,216,25.0,25.0,68,0.00,,---,0.33,VWS V14.00,2013-04-19 19:56:00,
2013-04-19 15:57:00,40.1,30.0,29.52,SW,215,13.0,28.0,67,0.00,,---,0.33,VWS V14.00,2013-04-19 19:57:00,
2013-04-19 15:59:00,40.1,30.0,29.52,WSW,247,20.0,40.0,67,0.00,,---,0.33,VWS V14.00,2013-04-19 19:59:00,
2013-04-19 16:00:00,40.2,29.8,29.51,West,268,23.0,40.0,66,0.00,,---,0.33,VWS V14.00,2013-04-19 20:00:00,
2013-04-19 16:01:00,40.1,29.7,29.51,SW,224,15.0,40.0,66,0.00,,---,0.33,VWS V14.00,2013-04-19 20:01:00,
2013-04-19 16:02:00,40.2,29.8,29.51,SW,224,29.0,32.0,66,0.00,,---,0.33,VWS V14.00,2013-04-19 20:02:00,
2013-04-19 16:11:00,40.1,29.7,29.51,SW,224,11.0,11.0,66,0.00,,---,0.33,VWS V14.00,2013-04-19 20:11:00,
2013-04-19 16:16:00,40.2,30.1,29.52,SW,230,18.0,33.0,67,0.00,,---,0.33,VWS V14.00,2013-04-19 20:16:00,
2013-04-19 16:21:00,40.2,30.5,29.52,WSW,253,9.0,33.0,68,0.00,,---,0.33,VWS V14.00,2013-04-19 20:21:00,
2013-04-19 16:26:00,40.1,30.0,29.52,SSW,206,16.0,33.0,67,0.00,,---,0.33,VWS V14.00,2013-04-19 20:26:00,
2013-04-19 16:31:00,39.9,30.2,29.52,NW,318,8.0,33.0,68,0.00,,---,0.33,VWS V14.00,2013-04-19 20:31:00,
2013-04-19 16:36:00,39.9,30.2,29.52,SW,216,25.0,35.0,68,0.00,,---,0.33,VWS V14.00,2013-04-19 20:36:00,
2013-04-19 16:37:00,39.8,30.1,29.52,SW,219,17.0,35.0,68,0.00,,---,0.33,VWS V14.00,2013-04-19 20:37:00,
2013-04-19 16:41:00,39.8,30.1,29.52,SW,223,26.0,35.0,68,0.00,,---,0.33,VWS V14.00,2013-04-19 20:41:00,
2013-04-19 16:42:00,39.8,30.1,29.52,WNW,288,24.0,35.0,68,0.00,,---,0.33,VWS V14.00,2013-04-19 20:42:00,
2013-04-19 16:46:00,39.8,30.1,29.53,SSW,213,7.0,35.0,68,0.00,,---,0.33,VWS V14.00,2013-04-19 20:46:00,
2013-04-19 16:47:00,39.8,30.1,29.53,SSW,196,15.0,35.0,68,0.00,,---,0.33,VWS V14.00,2013-04-19 20:47:00,
2013-04-19 16:51:00,39.8,29.8,29.53,SSW,210,25.0,35.0,67,0.00,,---,0.33,VWS V14.00,2013-04-19 20:51:00,
2013-04-19 16:52:00,39.8,29.8,29.53,West,272,22.0,35.0,67,0.00,,---,0.33,VWS V14.00,2013-04-19 20:52:00,
2013-04-19 16:57:00,39.8,29.8,29.53,SW,223,13.0,35.0,67,0.00,,---,0.33,VWS V14.00,2013-04-19 20:57:00,
2013-04-19 17:02:00,39.9,29.5,29.54,WSW,241,7.0,18.0,66,0.00,,---,0.33,VWS V14.00,2013-04-19 21:02:00,
2013-04-19 17:07:00,39.8,29.8,29.54,West,270,14.0,28.0,67,0.00,,---,0.33,VWS V14.00,2013-04-19 21:07:00,
2013-04-19 17:12:00,39.8,30.5,29.54,SW,219,15.0,28.0,69,0.00,,---,0.33,VWS V14.00,2013-04-19 21:12:00,
2013-04-19 17:17:00,39.5,29.8,29.55,SW,216,20.0,35.0,68,0.00,,---,0.33,VWS V14.00,2013-04-19 21:17:00,
2013-04-19 17:18:00,39.5,30.2,29.55,SW,217,11.0,35.0,69,0.00,,---,0.33,VWS V14.00,2013-04-19 21:18:00,
2013-04-19 17:22:00,39.6,30.3,29.55,SW,223,13.0,35.0,69,0.00,,---,0.33,VWS V14.00,2013-04-19 21:22:00,
2013-04-19 17:23:00,39.6,29.9,29.55,SSW,213,13.0,35.0,68,0.00,,---,0.33,VWS V14.00,2013-04-19 21:23:00,
2013-04-19 17:27:00,39.8,29.4,29.55,SSW,209,15.0,35.0,66,0.00,,---,0.33,VWS V14.00,2013-04-19 21:27:00,
2013-04-19 17:28:00,39.8,29.4,29.55,SSW,206,10.0,35.0,66,0.00,,---,0.33,VWS V14.00,2013-04-19 21:28:00,
2013-04-19 17:32:00,39.9,29.5,29.57,SW,230,11.0,35.0,66,0.00,,---,0.33,VWS V14.00,2013-04-19 21:32:00,
2013-04-19 17:33:00,39.9,29.5,29.57,SW,234,18.0,35.0,66,0.00,,---,0.33,VWS V14.00,2013-04-19 21:33:00,
2013-04-19 17:37:00,39.9,29.5,29.57,SW,216,21.0,35.0,66,0.00,,---,0.33,VWS V14.00,2013-04-19 21:37:00,
2013-04-19 17:38:00,39.9,29.5,29.57,SW,229,32.0,35.0,66,0.00,,---,0.33,VWS V14.00,2013-04-19 21:38:00,
2013-04-19 17:39:00,39.9,29.5,29.57,SW,230,14.0,35.0,66,0.00,,---,0.33,VWS V14.00,2013-04-19 21:39:00,
2013-04-19 17:42:00,39.9,29.5,29.57,NW,311,15.0,35.0,66,0.00,,---,0.33,VWS V14.00,2013-04-19 21:42:00,
2013-04-19 17:43:00,39.9,29.5,29.57,SW,223,13.0,35.0,66,0.00,,---,0.33,VWS V14.00,2013-04-19 21:43:00,
2013-04-19 17:44:00,39.9,29.5,29.57,SSW,212,7.0,35.0,66,0.00,,---,0.33,VWS V14.00,2013-04-19 21:44:00,
2013-04-19 17:47:00,39.9,29.5,29.57,SSW,213,16.0,35.0,66,0.00,,---,0.33,VWS V14.00,2013-04-19 21:47:00,
2013-04-19 17:48:00,39.9,29.5,29.57,SSW,202,17.0,35.0,66,0.00,,---,0.33,VWS V14.00,2013-04-19 21:48:00,
2013-04-19 17:49:00,39.9,29.5,29.57,SW,227,23.0,35.0,66,0.00,,---,0.33,VWS V14.00,2013-04-19 21:49:00,
2013-04-19 17:52:00,39.9,29.1,29.57,SW,227,20.0,35.0,65,0.00,,---,0.33,VWS V14.00,2013-04-19 21:52:00,
2013-04-19 17:53:00,39.9,29.1,29.57,SSW,202,20.0,35.0,65,0.00,,---,0.33,VWS V14.00,2013-04-19 21:53:00,
2013-04-19 17:54:00,39.9,29.1,29.57,SSW,206,26.0,35.0,65,0.00,,---,0.33,VWS V14.00,2013-04-19 21:54:00,
2013-04-19 17:57:00,39.8,29.0,29.57,SW,230,21.0,35.0,65,0.00,,---,0.33,VWS V14.00,2013-04-19 21:57:00,
2013-04-19 17:58:00,39.8,29.0,29.57,SW,230,18.0,35.0,65,0.00,,---,0.33,VWS V14.00,2013-04-19 21:58:00,
2013-04-19 17:59:00,39.8,29.0,29.57,SW,222,15.0,35.0,65,0.00,,---,0.33,VWS V14.00,2013-04-19 21:59:00,
2013-04-19 18:02:00,39.6,29.2,29.57,SW,233,18.0,25.0,66,0.00,,---,0.33,VWS V14.00,2013-04-19 22:02:00,
2013-04-19 18:03:00,39.6,29.2,29.57,SW,234,11.0,25.0,66,0.00,,---,0.33,VWS V14.00,2013-04-19 22:03:00,
2013-04-19 18:04:00,39.6,29.2,29.57,SW,230,17.0,25.0,66,0.00,,---,0.33,VWS V14.00,2013-04-19 22:04:00,
2013-04-19 18:08:00,39.5,29.5,29.57,SW,219,23.0,25.0,67,0.00,,---,0.33,VWS V14.00,2013-04-19 22:08:00,
2013-04-19 18:09:00,39.5,29.8,29.57,SW,219,16.0,25.0,68,0.00,,---,0.33,VWS V14.00,2013-04-19 22:09:00,
2013-04-19 18:10:00,39.3,29.3,29.57,SW,233,20.0,25.0,67,0.00,,---,0.33,VWS V14.00,2013-04-19 22:10:00,
2013-04-19 18:13:00,39.3,29.6,29.57,South,189,10.0,25.0,68,0.00,,---,0.33,VWS V14.00,2013-04-19 22:13:00,
2013-04-19 18:14:00,39.5,29.8,29.57,SSW,209,17.0,25.0,68,0.00,,---,0.33,VWS V14.00,2013-04-19 22:14:00,
2013-04-19 18:15:00,39.5,29.8,29.57,SSW,209,4.0,25.0,68,0.00,,---,0.33,VWS V14.00,2013-04-19 22:15:00,
2013-04-19 18:18:00,39.5,30.2,29.58,WSW,239,8.0,25.0,69,0.00,,---,0.33,VWS V14.00,2013-04-19 22:18:00,
2013-04-19 18:19:00,39.5,30.2,29.58,South,186,15.0,25.0,69,0.00,,---,0.33,VWS V14.00,2013-04-19 22:19:00,
2013-04-19 18:20:00,39.5,29.8,29.58,SSW,210,13.0,25.0,68,0.00,,---,0.33,VWS V14.00,2013-04-19 22:20:00,
2013-04-19 18:23:00,39.5,29.8,29.58,SSW,198,8.0,25.0,68,0.00,,---,0.33,VWS V14.00,2013-04-19 22:23:00,
2013-04-19 18:24:00,39.5,29.8,29.58,SW,223,17.0,29.0,68,0.00,,---,0.33,VWS V14.00,2013-04-19 22:24:00,
2013-04-19 18:25:00,39.5,29.8,29.58,SSW,202,13.0,29.0,68,0.00,,---,0.33,VWS V14.00,2013-04-19 22:25:00,
2013-04-19 18:28:00,39.5,29.5,29.58,SW,220,16.0,29.0,67,0.00,,---,0.33,VWS V14.00,2013-04-19 22:28:00,
2013-04-19 18:29:00,39.5,29.5,29.58,South,179,11.0,29.0,67,0.00,,---,0.33,VWS V14.00,2013-04-19 22:29:00,
2013-04-19 18:30:00,39.5,29.5,29.58,SW,224,20.0,29.0,67,0.00,,---,0.33,VWS V14.00,2013-04-19 22:30:00,
2013-04-19 18:33:00,39.5,29.5,29.59,SW,222,4.0,29.0,67,0.00,,---,0.33,VWS V14.00,2013-04-19 22:33:00,
2013-04-19 18:34:00,39.6,29.6,29.59,SW,219,16.0,29.0,67,0.00,,---,0.33,VWS V14.00,2013-04-19 22:34:00,
2013-04-19 18:35:00,39.6,29.6,29.59,SW,219,9.0,29.0,67,0.00,,---,0.33,VWS V14.00,2013-04-19 22:35:00,
2013-04-19 18:38:00,39.6,29.9,29.59,SW,232,17.0,29.0,68,0.00,,---,0.33,VWS V14.00,2013-04-19 22:38:00,
2013-04-19 18:39:00,39.5,29.8,29.59,SSW,205,7.0,29.0,68,0.00,,---,0.33,VWS V14.00,2013-04-19 22:39:00,
2013-04-19 18:40:00,39.5,29.8,29.59,SW,223,8.0,29.0,68,0.00,,---,0.33,VWS V14.00,2013-04-19 22:40:00,
2013-04-19 18:41:00,39.5,29.8,29.59,SW,217,7.0,29.0,68,0.00,,---,0.33,VWS V14.00,2013-04-19 22:41:00,
2013-04-19 18:44:00,39.5,30.2,29.59,SW,216,10.0,29.0,69,0.00,,---,0.33,VWS V14.00,2013-04-19 22:44:00,
2013-04-19 18:45:00,39.5,30.2,29.59,NW,313,10.0,29.0,69,0.00,,---,0.33,VWS V14.00,2013-04-19 22:45:00,
2013-04-19 18:46:00,39.5,30.2,29.60,SW,216,13.0,29.0,69,0.00,,---,0.33,VWS V14.00,2013-04-19 22:46:00,
2013-04-19 18:49:00,39.3,30.0,29.60,SW,222,17.0,29.0,69,0.00,,---,0.33,VWS V14.00,2013-04-19 22:49:00,
2013-04-19 18:50:00,39.3,30.0,29.60,SW,215,11.0,29.0,69,0.00,,---,0.33,VWS V14.00,2013-04-19 22:50:00,
2013-04-19 18:51:00,39.3,30.0,29.60,WSW,251,18.0,29.0,69,0.00,,---,0.33,VWS V14.00,2013-04-19 22:51:00,
2013-04-19 18:54:00,39.2,29.9,29.60,SSW,198,10.0,30.0,69,0.00,,---,0.33,VWS V14.00,2013-04-19 22:54:00,
2013-04-19 18:55:00,39.2,29.9,29.60,SSW,195,26.0,30.0,69,0.00,,---,0.33,VWS V14.00,2013-04-19 22:55:00,
2013-04-19 18:56:00,39.2,29.9,29.60,SSW,203,13.0,30.0,69,0.00,,---,0.33,VWS V14.00,2013-04-19 22:56:00,
2013-04-19 18:59:00,39.2,30.2,29.60,SW,220,22.0,30.0,70,0.00,,---,0.33,VWS V14.00,2013-04-19 22:59:00,
2013-04-19 19:00:00,39.1,30.2,29.60,SW,229,11.0,30.0,70,0.00,,---,0.33,VWS V14.00,2013-04-19 23:00:00,
2013-04-19 19:01:00,39.1,30.2,29.61,WNW,288,7.0,30.0,70,0.00,,---,0.33,VWS V14.00,2013-04-19 23:01:00,
2013-04-19 19:04:00,39.1,30.2,29.61,SW,226,8.0,18.0,70,0.00,,---,0.33,VWS V14.00,2013-04-19 23:04:00,
2013-04-19 19:05:00,39.1,30.2,29.61,SW,215,23.0,23.0,70,0.00,,---,0.33,VWS V14.00,2013-04-19 23:05:00,
2013-04-19 19:06:00,39.1,30.2,29.61,SW,215,23.0,26.0,70,0.00,,---,0.33,VWS V14.00,2013-04-19 23:06:00,
2013-04-19 19:07:00,39.1,29.8,29.61,SSW,200,13.0,26.0,69,0.00,,---,0.33,VWS V14.00,2013-04-19 23:07:00,
2013-04-19 19:09:00,39.1,29.8,29.61,WSW,251,11.0,26.0,69,0.00,,---,0.33,VWS V14.00,2013-04-19 23:09:00,
2013-04-19 19:10:00,39.1,29.8,29.61,WSW,237,11.0,26.0,69,0.00,,---,0.33,VWS V14.00,2013-04-19 23:10:00,
2013-04-19 19:11:00,39.1,29.8,29.61,SW,232,10.0,26.0,69,0.00,,---,0.33,VWS V14.00,2013-04-19 23:11:00,
2013-04-19 19:12:00,39.1,29.8,29.61,SW,215,22.0,26.0,69,0.00,,---,0.33,VWS V14.00,2013-04-19 23:12:00,
2013-04-19 19:14:00,39.1,29.5,29.61,SW,234,10.0,35.0,68,0.00,,---,0.33,VWS V14.00,2013-04-19 23:14:00,
2013-04-19 19:15:00,39.2,29.5,29.61,SW,229,13.0,35.0,68,0.00,,---,0.33,VWS V14.00,2013-04-19 23:15:00,
2013-04-19 19:17:00,39.2,29.2,29.62,SW,234,14.0,35.0,67,0.00,,---,0.33,VWS V14.00,2013-04-19 23:17:00,
2013-04-19 19:19:00,39.2,29.2,29.62,West,261,14.0,35.0,67,0.00,,---,0.33,VWS V14.00,2013-04-19 23:19:00,
2013-04-19 19:20:00,39.2,29.2,29.62,SW,224,21.0,35.0,67,0.00,,---,0.33,VWS V14.00,2013-04-19 23:20:00,
2013-04-19 19:22:00,39.2,28.8,29.62,SW,233,23.0,35.0,66,0.00,,---,0.33,VWS V14.00,2013-04-19 23:22:00,
2013-04-19 19:24:00,39.2,28.4,29.62,WSW,241,23.0,35.0,65,0.00,,---,0.33,VWS V14.00,2013-04-19 23:24:00,
2013-04-19 19:25:00,39.2,28.4,29.62,SW,223,18.0,35.0,65,0.00,,---,0.33,VWS V14.00,2013-04-19 23:25:00,
2013-04-19 19:27:00,39.2,28.4,29.62,WSW,254,15.0,35.0,65,0.00,,---,0.33,VWS V14.00,2013-04-19 23:27:00,
2013-04-19 19:29:00,39.2,28.4,29.62,SW,216,9.0,35.0,65,0.00,,---,0.33,VWS V14.00,2013-04-19 23:29:00,
2013-04-19 19:30:00,39.2,28.4,29.62,SW,233,21.0,35.0,65,0.00,,---,0.33,VWS V14.00,2013-04-19 23:30:00,
2013-04-19 19:32:00,39.1,28.3,29.62,SSW,199,15.0,35.0,65,0.00,,---,0.33,VWS V14.00,2013-04-19 23:32:00,
2013-04-19 19:34:00,39.1,28.3,29.62,SW,227,13.0,35.0,65,0.00,,---,0.33,VWS V14.00,2013-04-19 23:34:00,
2013-04-19 19:36:00,39.1,28.3,29.62,SW,216,16.0,35.0,65,0.00,,---,0.33,VWS V14.00,2013-04-19 23:36:00,
2013-04-19 19:37:00,39.1,28.7,29.62,WSW,250,24.0,35.0,66,0.00,,---,0.33,VWS V14.00,2013-04-19 23:37:00,
2013-04-19 19:39:00,39.1,28.7,29.62,WSW,241,13.0,35.0,66,0.00,,---,0.33,VWS V14.00,2013-04-19 23:39:00,
2013-04-19 19:41:00,39.1,29.1,29.62,SSW,213,14.0,35.0,67,0.00,,---,0.33,VWS V14.00,2013-04-19 23:41:00,
2013-04-19 19:42:00,39.1,29.1,29.62,SSW,203,15.0,35.0,67,0.00,,---,0.33,VWS V14.00,2013-04-19 23:42:00,
2013-04-19 19:44:00,38.9,28.5,29.62,West,271,14.0,35.0,66,0.00,,---,0.33,VWS V14.00,2013-04-19 23:44:00,
2013-04-19 19:46:00,38.9,28.5,29.64,West,281,31.0,35.0,66,0.00,,---,0.33,VWS V14.00,2013-04-19 23:46:00,
2013-04-19 19:47:00,38.9,28.1,29.64,WSW,241,26.0,35.0,65,0.00,,---,0.33,VWS V14.00,2013-04-19 23:47:00,
2013-04-19 19:48:00,38.9,28.1,29.64,West,277,8.0,35.0,65,0.00,,---,0.33,VWS V14.00,2013-04-19 23:48:00,
2013-04-19 19:50:00,39.1,28.3,29.64,WSW,250,20.0,35.0,65,0.00,,---,0.33,VWS V14.00,2013-04-19 23:50:00,
2013-04-19 19:51:00,39.1,28.3,29.64,SSW,210,21.0,35.0,65,0.00,,---,0.33,VWS V14.00,2013-04-19 23:51:00,
2013-04-19 19:52:00,39.1,28.0,29.64,SW,227,17.0,35.0,64,0.00,,---,0.33,VWS V14.00,2013-04-19 23:52:00,
2013-04-19 19:53:00,39.1,28.0,29.64,WSW,237,13.0,35.0,64,0.00,,---,0.33,VWS V14.00,2013-04-19 23:53:00,
2013-04-19 19:55:00,39.1,28.0,29.64,SSW,192,28.0,35.0,64,0.00,,---,0.33,VWS V14.00,2013-04-19 23:55:00,
2013-04-19 19:57:00,39.1,28.0,29.64,SW,219,15.0,35.0,64,0.00,,---,0.33,VWS V14.00,2013-04-19 23:57:00,
2013-04-19 19:58:00,39.1,28.0,29.64,West,263,15.0,35.0,64,0.00,,---,0.33,VWS V14.00,2013-04-19 23:58:00,
2013-04-19 20:00:00,39.1,28.0,29.64,WSW,241,10.0,35.0,64,0.00,,---,0.33,VWS V14.00,2013-04-20 00:00:00,
2013-04-19 20:02:00,39.1,28.0,29.64,SW,224,11.0,23.0,64,0.00,,---,0.33,VWS V14.00,2013-04-20 00:02:00,
2013-04-19 20:03:00,39.1,28.0,29.64,WSW,250,14.0,23.0,64,0.00,,---,0.33,VWS V14.00,2013-04-20 00:03:00,
2013-04-19 20:04:00,39.1,28.0,29.64,SSW,213,15.0,26.0,64,0.00,,---,0.33,VWS V14.00,2013-04-20 00:04:00,
2013-04-19 20:05:00,38.9,27.8,29.64,WNW,302,10.0,26.0,64,0.00,,---,0.33,VWS V14.00,2013-04-20 00:05:00,
2013-04-19 20:07:00,38.9,27.8,29.64,SW,226,14.0,26.0,64,0.00,,---,0.33,VWS V14.00,2013-04-20 00:07:00,
2013-04-19 20:08:00,38.9,27.8,29.64,West,268,13.0,26.0,64,0.00,,---,0.33,VWS V14.00,2013-04-20 00:08:00,
2013-04-19 20:09:00,38.9,28.1,29.64,SW,217,9.0,26.0,65,0.00,,---,0.33,VWS V14.00,2013-04-20 00:09:00,
2013-04-19 20:10:00,38.9,28.1,29.64,SSW,212,15.0,26.0,65,0.00,,---,0.33,VWS V14.00,2013-04-20 00:10:00,
2013-04-19 20:12:00,38.8,28.1,29.64,WSW,243,11.0,26.0,65,0.00,,---,0.33,VWS V14.00,2013-04-20 00:12:00,
2013-04-19 20:13:00,38.8,28.1,29.64,SW,230,17.0,26.0,65,0.00,,---,0.33,VWS V14.00,2013-04-20 00:13:00,
2013-04-19 20:14:00,38.8,28.4,29.64,SSW,206,16.0,26.0,66,0.00,,---,0.33,VWS V14.00,2013-04-20 00:14:00,
2013-04-19 20:15:00,38.8,28.8,29.64,SW,223,11.0,26.0,67,0.00,,---,0.33,VWS V14.00,2013-04-20 00:15:00,
2013-04-19 20:17:00,38.6,28.6,29.64,WNW,287,9.0,29.0,67,0.00,,---,0.33,VWS V14.00,2013-04-20 00:17:00,
2013-04-19 20:18:00,38.6,28.6,29.64,WSW,239,15.0,29.0,67,0.00,,---,0.33,VWS V14.00,2013-04-20 00:18:00,
2013-04-19 20:19:00,38.6,28.6,29.64,SW,230,21.0,29.0,67,0.00,,---,0.33,VWS V14.00,2013-04-20 00:19:00,
2013-04-19 20:20:00,38.6,28.6,29.64,SSW,199,9.0,29.0,67,0.00,,---,0.33,VWS V14.00,2013-04-20 00:20:00,
2013-04-19 20:22:00,38.5,28.5,29.64,SSW,213,15.0,29.0,67,0.00,,---,0.33,VWS V14.00,2013-04-20 00:22:00,
2013-04-19 20:23:00,38.5,28.5,29.64,SW,219,7.0,29.0,67,0.00,,---,0.33,VWS V14.00,2013-04-20 00:23:00,
2013-04-19 20:24:00,38.5,28.5,29.64,SW,226,22.0,29.0,67,0.00,,---,0.33,VWS V14.00,2013-04-20 00:24:00,
2013-04-19 20:26:00,38.5,28.9,29.64,SSW,213,21.0,31.0,68,0.00,,---,0.33,VWS V14.00,2013-04-20 00:26:00,
2013-04-19 20:27:00,38.5,28.9,29.64,SW,216,10.0,31.0,68,0.00,,---,0.33,VWS V14.00,2013-04-20 00:27:00,
2013-04-19 20:28:00,38.3,28.7,29.64,SW,217,13.0,31.0,68,0.00,,---,0.33,VWS V14.00,2013-04-20 00:28:00,
2013-04-19 20:29:00,38.3,28.7,29.64,SW,230,28.0,31.0,68,0.00,,---,0.33,VWS V14.00,2013-04-20 00:29:00,
2013-04-19 20:31:00,38.3,29.0,29.66,SW,216,22.0,31.0,69,0.00,,---,0.33,VWS V14.00,2013-04-20 00:31:00,
2013-04-19 20:32:00,38.3,29.0,29.66,SW,233,17.0,31.0,69,0.00,,---,0.33,VWS V14.00,2013-04-20 00:32:00,
2013-04-19 20:33:00,38.3,29.0,29.66,SSW,203,11.0,31.0,69,0.00,,---,0.33,VWS V14.00,2013-04-20 00:33:00,
2013-04-19 20:35:00,38.3,29.0,29.66,SW,222,6.0,31.0,69,0.00,,---,0.33,VWS V14.00,2013-04-20 00:35:00,
2013-04-19 20:36:00,38.3,29.0,29.66,SW,220,16.0,31.0,69,0.00,,---,0.33,VWS V14.00,2013-04-20 00:36:00,
2013-04-19 20:38:00,38.2,28.6,29.66,SW,217,13.0,31.0,68,0.00,,---,0.33,VWS V14.00,2013-04-20 00:38:00,
2013-04-19 20:40:00,38.2,28.6,29.66,SSW,210,9.0,31.0,68,0.00,,---,0.33,VWS V14.00,2013-04-20 00:40:00,
2013-04-19 20:41:00,38.2,28.6,29.66,SSW,213,8.0,31.0,68,0.00,,---,0.33,VWS V14.00,2013-04-20 00:41:00,
2013-04-19 20:43:00,38.2,28.6,29.66,NW,308,4.0,31.0,68,0.00,,---,0.33,VWS V14.00,2013-04-20 00:43:00,
2013-04-19 20:45:00,38.2,28.6,29.66,West,268,13.0,31.0,68,0.00,,---,0.33,VWS V14.00,2013-04-20 00:45:00,
2013-04-19 20:46:00,38.2,28.6,29.66,West,267,8.0,31.0,68,0.00,,---,0.33,VWS V14.00,2013-04-20 00:46:00,
2013-04-19 20:48:00,38.2,28.6,29.66,SW,226,9.0,31.0,68,0.00,,---,0.33,VWS V14.00,2013-04-20 00:48:00,
2013-04-19 20:49:00,38.2,28.6,29.66,SSW,209,10.0,31.0,68,0.00,,---,0.33,VWS V14.00,2013-04-20 00:49:00,
2013-04-19 20:50:00,38.2,28.6,29.66,SW,217,16.0,31.0,68,0.00,,---,0.33,VWS V14.00,2013-04-20 00:50:00,
2013-04-19 20:51:00,38.2,28.6,29.66,SW,234,13.0,31.0,68,0.00,,---,0.33,VWS V14.00,2013-04-20 00:51:00,
2013-04-19 20:53:00,38.2,28.6,29.66,SW,234,10.0,31.0,68,0.00,,---,0.33,VWS V14.00,2013-04-20 00:53:00,
2013-04-19 20:54:00,38.2,28.6,29.66,SW,224,14.0,31.0,68,0.00,,---,0.33,VWS V14.00,2013-04-20 00:54:00,
2013-04-19 20:55:00,38.2,28.2,29.66,SSW,213,14.0,31.0,67,0.00,,---,0.33,VWS V14.00,2013-04-20 00:55:00,
2013-04-19 20:56:00,38.2,28.2,29.66,SW,219,9.0,31.0,67,0.00,,---,0.33,VWS V14.00,2013-04-20 00:56:00,
2013-04-19 20:58:00,38.2,28.2,29.66,SSW,208,11.0,31.0,67,0.00,,---,0.33,VWS V14.00,2013-04-20 00:58:00,
2013-04-19 20:59:00,38.2,28.2,29.66,SSW,205,8.0,31.0,67,0.00,,---,0.33,VWS V14.00,2013-04-20 00:59:00,
2013-04-19 21:00:00,38.2,28.2,29.66,West,263,13.0,31.0,67,0.00,,---,0.33,VWS V14.00,2013-04-20 01:00:00,
2013-04-19 21:01:00,38.2,28.2,29.66,SW,224,8.0,31.0,67,0.00,,---,0.33,VWS V14.00,2013-04-20 01:01:00,
2013-04-19 21:03:00,38.2,28.2,29.66,SW,219,13.0,16.0,67,0.00,,---,0.33,VWS V14.00,2013-04-20 01:03:00,
2013-04-19 21:04:00,38.2,28.2,29.66,SW,215,14.0,16.0,67,0.00,,---,0.33,VWS V14.00,2013-04-20 01:04:00,
2013-04-19 21:05:00,38.2,28.2,29.66,SSW,208,15.0,30.0,67,0.00,,---,0.33,VWS V14.00,2013-04-20 01:05:00,
2013-04-19 21:06:00,38.2,27.9,29.66,WSW,247,16.0,30.0,66,0.00,,---,0.33,VWS V14.00,2013-04-20 01:06:00,
2013-04-19 21:08:00,38.2,27.9,29.66,SW,226,9.0,30.0,66,0.00,,---,0.33,VWS V14.00,2013-04-20 01:08:00,
2013-04-19 21:09:00,38.2,27.9,29.66,WNW,284,8.0,30.0,66,0.00,,---,0.33,VWS V14.00,2013-04-20 01:09:00,
2013-04-19 21:10:00,38.2,27.9,29.66,WSW,240,20.0,30.0,66,0.00,,---,0.33,VWS V14.00,2013-04-20 01:10:00,
2013-04-19 21:11:00,38.2,27.9,29.66,WSW,237,11.0,30.0,66,0.00,,---,0.33,VWS V14.00,2013-04-20 01:11:00,
2013-04-19 21:13:00,38.2,28.2,29.66,SSW,213,22.0,30.0,67,0.00,,---,0.33,VWS V14.00,2013-04-20 01:13:00,
2013-04-19 21:14:00,38.2,28.2,29.66,SSW,206,20.0,30.0,67,0.00,,---,0.33,VWS V14.00,2013-04-20 01:14:00,
2013-04-19 21:16:00,38.2,27.9,29.67,SW,227,15.0,30.0,66,0.00,,---,0.33,VWS V14.00,2013-04-20 01:16:00,
2013-04-19 21:18:00,38.2,28.2,29.67,SW,227,14.0,30.0,67,0.00,,---,0.33,VWS V14.00,2013-04-20 01:18:00,
2013-04-19 21:19:00,38.2,28.2,29.67,SW,219,7.0,30.0,67,0.00,,---,0.33,VWS V14.00,2013-04-20 01:19:00,
2013-04-19 21:21:00,38.2,28.2,29.67,SW,229,7.0,30.0,67,0.00,,---,0.33,VWS V14.00,2013-04-20 01:21:00,
2013-04-19 21:24:00,38.0,28.0,29.67,South,179,8.0,30.0,67,0.00,,---,0.33,VWS V14.00,2013-04-20 01:24:00,
2013-04-19 21:26:00,38.0,28.4,29.67,WSW,253,10.0,30.0,68,0.00,,---,0.33,VWS V14.00,2013-04-20 01:26:00,
2013-04-19 21:27:00,38.0,28.4,29.67,SW,227,8.0,30.0,68,0.00,,---,0.33,VWS V14.00,2013-04-20 01:27:00,
2013-04-19 21:29:00,38.0,28.4,29.67,SSW,198,13.0,30.0,68,0.00,,---,0.33,VWS V14.00,2013-04-20 01:29:00,
2013-04-19 21:32:00,38.0,28.8,29.67,SSW,213,7.0,30.0,69,0.00,,---,0.33,VWS V14.00,2013-04-20 01:32:00,
2013-04-19 21:34:00,37.9,28.6,29.67,SSW,196,16.0,30.0,69,0.00,,---,0.33,VWS V14.00,2013-04-20 01:34:00,
2013-04-19 21:35:00,37.9,28.6,29.67,WNW,288,14.0,30.0,69,0.00,,---,0.33,VWS V14.00,2013-04-20 01:35:00,
2013-04-19 21:37:00,37.9,28.6,29.67,SSW,206,20.0,30.0,69,0.00,,---,0.33,VWS V14.00,2013-04-20 01:37:00,
2013-04-19 21:39:00,37.8,28.6,29.67,SSW,213,21.0,30.0,69,0.00,,---,0.33,VWS V14.00,2013-04-20 01:39:00,
2013-04-19 21:40:00,37.8,28.6,29.67,SW,215,28.0,30.0,69,0.00,,---,0.33,VWS V14.00,2013-04-20 01:40:00,
2013-04-19 21:42:00,37.8,28.6,29.67,SSW,192,14.0,30.0,69,0.00,,---,0.33,VWS V14.00,2013-04-20 01:42:00,
2013-04-19 21:44:00,37.8,28.6,29.67,SW,217,10.0,34.0,69,0.00,,---,0.33,VWS V14.00,2013-04-20 01:44:00,
2013-04-19 21:45:00,37.8,28.6,29.67,SW,217,14.0,34.0,69,0.00,,---,0.33,VWS V14.00,2013-04-20 01:45:00,
2013-04-19 21:47:00,37.6,28.4,29.69,SW,219,13.0,34.0,69,0.00,,---,0.33,VWS V14.00,2013-04-20 01:47:00,
2013-04-19 21:49:00,37.6,28.7,29.69,WSW,256,18.0,34.0,70,0.00,,---,0.33,VWS V14.00,2013-04-20 01:49:00,
2013-04-19 21:50:00,37.6,28.7,29.69,SW,219,11.0,34.0,70,0.00,,---,0.33,VWS V14.00,2013-04-20 01:50:00,
2013-04-19 21:52:00,37.6,28.7,29.69,SSW,212,16.0,34.0,70,0.00,,---,0.33,VWS V14.00,2013-04-20 01:52:00,
2013-04-19 21:55:00,37.6,28.7,29.69,SSW,212,17.0,34.0,70,0.00,,---,0.33,VWS V14.00,2013-04-20 01:55:00,
2013-04-19 21:57:00,37.6,28.7,29.69,SW,229,20.0,34.0,70,0.00,,---,0.33,VWS V14.00,2013-04-20 01:57:00,
2013-04-19 22:00:00,37.5,28.6,29.69,SW,215,9.0,34.0,70,0.00,,---,0.33,VWS V14.00,2013-04-20 02:00:00,
2013-04-19 22:02:00,37.5,28.6,29.69,SW,234,6.0,9.0,70,0.00,,---,0.33,VWS V14.00,2013-04-20 02:02:00,
2013-04-19 22:03:00,37.5,28.6,29.69,SW,220,13.0,13.0,70,0.00,,---,0.33,VWS V14.00,2013-04-20 02:03:00,
2013-04-19 22:05:00,37.5,28.6,29.69,SSW,203,17.0,28.0,70,0.00,,---,0.33,VWS V14.00,2013-04-20 02:05:00,
2013-04-19 22:06:00,37.5,28.6,29.69,WSW,241,24.0,28.0,70,0.00,,---,0.33,VWS V14.00,2013-04-20 02:06:00,
2013-04-19 22:07:00,37.5,28.6,29.69,SSW,212,20.0,28.0,70,0.00,,---,0.33,VWS V14.00,2013-04-20 02:07:00,
2013-04-19 22:08:00,37.5,28.6,29.69,WSW,237,17.0,28.0,70,0.00,,---,0.33,VWS V14.00,2013-04-20 02:08:00,
2013-04-19 22:10:00,37.5,28.6,29.69,SSW,205,7.0,28.0,70,0.00,,---,0.33,VWS V14.00,2013-04-20 02:10:00,
2013-04-19 22:11:00,37.5,28.6,29.69,SSW,206,13.0,28.0,70,0.00,,---,0.33,VWS V14.00,2013-04-20 02:11:00,
2013-04-19 22:12:00,37.5,28.6,29.69,SSW,212,9.0,28.0,70,0.00,,---,0.33,VWS V14.00,2013-04-20 02:12:00,
2013-04-19 22:13:00,37.5,29.0,29.69,SSW,213,14.0,28.0,71,0.00,,---,0.33,VWS V14.00,2013-04-20 02:13:00,
2013-04-19 22:16:00,37.5,29.0,29.69,SSW,206,13.0,28.0,71,0.00,,---,0.33,VWS V14.00,2013-04-20 02:16:00,
2013-04-19 22:17:00,37.3,28.8,29.69,SSW,208,13.0,28.0,71,0.00,,---,0.33,VWS V14.00,2013-04-20 02:17:00,
2013-04-19 22:18:00,37.3,28.8,29.69,SSW,213,13.0,28.0,71,0.00,,---,0.33,VWS V14.00,2013-04-20 02:18:00,
2013-04-19 22:21:00,37.3,28.8,29.69,SW,226,14.0,28.0,71,0.00,,---,0.33,VWS V14.00,2013-04-20 02:21:00,
2013-04-19 22:22:00,37.3,28.8,29.69,WSW,247,4.0,28.0,71,0.00,,---,0.33,VWS V14.00,2013-04-20 02:22:00,
2013-04-19 22:23:00,37.3,28.8,29.69,SSW,213,13.0,28.0,71,0.00,,---,0.33,VWS V14.00,2013-04-20 02:23:00,
2013-04-19 22:26:00,37.3,28.8,29.69,SW,224,11.0,28.0,71,0.00,,---,0.33,VWS V14.00,2013-04-20 02:26:00,
2013-04-19 22:28:00,37.3,28.8,29.69,West,267,11.0,28.0,71,0.00,,---,0.33,VWS V14.00,2013-04-20 02:28:00,
2013-04-19 22:29:00,37.3,28.8,29.69,SW,215,9.0,28.0,71,0.00,,---,0.33,VWS V14.00,2013-04-20 02:29:00,
2013-04-19 22:31:00,37.3,28.8,29.69,SW,216,8.0,28.0,71,0.00,,---,0.33,VWS V14.00,2013-04-20 02:31:00,
2013-04-19 22:33:00,37.3,28.8,29.69,WSW,240,21.0,28.0,71,0.00,,---,0.33,VWS V14.00,2013-04-20 02:33:00,
2013-04-19 22:34:00,37.3,28.8,29.69,SW,220,20.0,28.0,71,0.00,,---,0.33,VWS V14.00,2013-04-20 02:34:00,
2013-04-19 22:36:00,37.3,28.8,29.69,SSW,209,16.0,28.0,71,0.00,,---,0.33,VWS V14.00,2013-04-20 02:36:00,
2013-04-19 22:37:00,37.3,28.8,29.69,SW,230,20.0,28.0,71,0.00,,---,0.33,VWS V14.00,2013-04-20 02:37:00,
2013-04-19 22:38:00,37.3,28.8,29.69,SSW,193,11.0,28.0,71,0.00,,---,0.33,VWS V14.00,2013-04-20 02:38:00,
2013-04-19 22:39:00,37.3,28.8,29.69,West,261,14.0,28.0,71,0.00,,---,0.33,VWS V14.00,2013-04-20 02:39:00,
2013-04-19 22:41:00,37.2,29.0,29.69,SW,216,8.0,28.0,72,0.00,,---,0.33,VWS V14.00,2013-04-20 02:41:00,
2013-04-19 22:42:00,37.2,29.0,29.69,SW,216,10.0,28.0,72,0.00,,---,0.33,VWS V14.00,2013-04-20 02:42:00,
2013-04-19 22:43:00,37.2,29.0,29.69,SW,219,13.0,28.0,72,0.00,,---,0.33,VWS V14.00,2013-04-20 02:43:00,
2013-04-19 22:44:00,37.2,29.0,29.69,SW,226,17.0,28.0,72,0.00,,---,0.33,VWS V14.00,2013-04-20 02:44:00,
2013-04-19 22:46:00,37.2,29.0,29.69,SW,219,14.0,28.0,72,0.00,,---,0.33,VWS V14.00,2013-04-20 02:46:00,
2013-04-19 22:47:00,37.2,29.0,29.69,SW,224,16.0,28.0,72,0.00,,---,0.33,VWS V14.00,2013-04-20 02:47:00,
2013-04-19 22:48:00,37.2,29.0,29.69,SSW,213,9.0,28.0,72,0.00,,---,0.33,VWS V14.00,2013-04-20 02:48:00,
2013-04-19 22:49:00,37.2,29.0,29.69,SW,227,9.0,28.0,72,0.00,,---,0.33,VWS V14.00,2013-04-20 02:49:00,
2013-04-19 22:51:00,37.0,28.8,29.69,SW,229,17.0,28.0,72,0.00,,---,0.33,VWS V14.00,2013-04-20 02:51:00,
2013-04-19 22:52:00,37.0,28.8,29.69,SSW,213,9.0,28.0,72,0.00,,---,0.33,VWS V14.00,2013-04-20 02:52:00,
2013-04-19 22:53:00,37.0,28.8,29.69,SW,230,14.0,28.0,72,0.00,,---,0.33,VWS V14.00,2013-04-20 02:53:00,
2013-04-19 22:54:00,37.0,28.8,29.69,SSW,213,9.0,28.0,72,0.00,,---,0.33,VWS V14.00,2013-04-20 02:54:00,
2013-04-19 22:56:00,37.0,28.8,29.69,SW,223,8.0,28.0,72,0.00,,---,0.33,VWS V14.00,2013-04-20 02:56:00,
2013-04-19 22:57:00,37.0,28.8,29.69,SSW,210,13.0,28.0,72,0.00,,---,0.33,VWS V14.00,2013-04-20 02:57:00,
2013-04-19 22:58:00,37.0,28.8,29.69,SSW,205,15.0,28.0,72,0.00,,---,0.33,VWS V14.00,2013-04-20 02:58:00,
2013-04-19 22:59:00,37.0,28.8,29.69,West,268,17.0,28.0,72,0.00,,---,0.33,VWS V14.00,2013-04-20 02:59:00,
2013-04-19 23:02:00,37.0,28.8,29.69,NW,311,13.0,21.0,72,0.00,,---,0.33,VWS V14.00,2013-04-20 03:02:00,
2013-04-19 23:03:00,36.9,29.1,29.69,West,260,6.0,21.0,73,0.00,,---,0.33,VWS V14.00,2013-04-20 03:03:00,
2013-04-19 23:04:00,36.9,29.1,29.69,SW,220,13.0,21.0,73,0.00,,---,0.33,VWS V14.00,2013-04-20 03:04:00,
2013-04-19 23:07:00,36.9,29.1,29.69,WNW,295,14.0,21.0,73,0.00,,---,0.33,VWS V14.00,2013-04-20 03:07:00,
2013-04-19 23:09:00,36.9,29.1,29.69,WNW,299,8.0,25.0,73,0.00,,---,0.33,VWS V14.00,2013-04-20 03:09:00,
2013-04-19 23:12:00,36.9,29.1,29.69,SSW,213,13.0,25.0,73,0.00,,---,0.33,VWS V14.00,2013-04-20 03:12:00,
2013-04-19 23:14:00,36.9,29.1,29.69,SSW,206,8.0,25.0,73,0.00,,---,0.33,VWS V14.00,2013-04-20 03:14:00,
2013-04-19 23:17:00,36.8,29.0,29.69,SSW,212,13.0,25.0,73,0.00,,---,0.33,VWS V14.00,2013-04-20 03:17:00,
2013-04-19 23:18:00,36.8,29.3,29.69,SSW,212,9.0,25.0,74,0.00,,---,0.33,VWS V14.00,2013-04-20 03:18:00,
2013-04-19 23:19:00,36.8,29.3,29.69,SW,223,8.0,25.0,74,0.00,,---,0.33,VWS V14.00,2013-04-20 03:19:00,
2013-04-19 23:22:00,36.8,29.3,29.69,SW,232,11.0,25.0,74,0.00,,---,0.33,VWS V14.00,2013-04-20 03:22:00,
2013-04-19 23:23:00,36.8,29.3,29.69,SW,229,9.0,25.0,74,0.00,,---,0.33,VWS V14.00,2013-04-20 03:23:00,
2013-04-19 23:24:00,36.8,29.3,29.69,SSW,206,21.0,25.0,74,0.00,,---,0.33,VWS V14.00,2013-04-20 03:24:00,
2013-04-19 23:27:00,36.6,28.8,29.69,SSW,209,8.0,25.0,73,0.00,,---,0.33,VWS V14.00,2013-04-20 03:27:00,
2013-04-19 23:28:00,36.6,28.8,29.69,SW,230,14.0,25.0,73,0.00,,---,0.33,VWS V14.00,2013-04-20 03:28:00,
2013-04-19 23:29:00,36.6,28.8,29.69,WSW,254,21.0,25.0,73,0.00,,---,0.33,VWS V14.00,2013-04-20 03:29:00,
2013-04-19 23:32:00,36.6,28.8,29.69,SSW,210,18.0,25.0,73,0.00,,---,0.33,VWS V14.00,2013-04-20 03:32:00,
2013-04-19 23:33:00,36.6,28.8,29.69,SW,232,15.0,25.0,73,0.00,,---,0.33,VWS V14.00,2013-04-20 03:33:00,
2013-04-19 23:34:00,36.6,29.1,29.69,South,189,10.0,25.0,74,0.00,,---,0.33,VWS V14.00,2013-04-20 03:34:00,
2013-04-19 23:37:00,36.6,29.1,29.69,SW,232,10.0,25.0,74,0.00,,---,0.33,VWS V14.00,2013-04-20 03:37:00,
2013-04-19 23:38:00,36.6,29.1,29.69,SW,220,18.0,25.0,74,0.00,,---,0.33,VWS V14.00,2013-04-20 03:38:00,
2013-04-19 23:39:00,36.6,29.1,29.69,SSW,208,10.0,25.0,74,0.00,,---,0.33,VWS V14.00,2013-04-20 03:39:00,
2013-04-19 23:40:00,36.6,29.1,29.69,SW,229,8.0,25.0,74,0.00,,---,0.33,VWS V14.00,2013-04-20 03:40:00,
2013-04-19 23:42:00,36.8,29.0,29.69,SSW,206,7.0,25.0,73,0.00,,---,0.33,VWS V14.00,2013-04-20 03:42:00,
2013-04-19 23:43:00,36.8,29.3,29.69,SSW,209,13.0,25.0,74,0.00,,---,0.33,VWS V14.00,2013-04-20 03:43:00,
2013-04-19 23:44:00,36.8,29.3,29.69,WNW,296,10.0,25.0,74,0.00,,---,0.33,VWS V14.00,2013-04-20 03:44:00,
2013-04-19 23:45:00,36.8,29.3,29.69,SSW,210,11.0,25.0,74,0.00,,---,0.33,VWS V14.00,2013-04-20 03:45:00,
2013-04-19 23:47:00,36.8,29.3,29.69,SW,230,14.0,25.0,74,0.00,,---,0.33,VWS V14.00,2013-04-20 03:47:00,
2013-04-19 23:48:00,36.8,29.3,29.69,WSW,257,11.0,25.0,74,0.00,,---,0.33,VWS V14.00,2013-04-20 03:48:00,
2013-04-19 23:49:00,36.8,29.3,29.69,SSW,212,11.0,25.0,74,0.00,,---,0.33,VWS V14.00,2013-04-20 03:49:00,
2013-04-19 23:50:00,36.8,29.3,29.69,West,260,20.0,25.0,74,0.00,,---,0.33,VWS V14.00,2013-04-20 03:50:00,
2013-04-19 23:53:00,36.6,29.4,29.69,SW,222,10.0,26.0,75,0.00,,---,0.33,VWS V14.00,2013-04-20 03:53:00,
2013-04-19 23:55:00,36.6,29.4,29.69,SW,219,11.0,26.0,75,0.00,,---,0.33,VWS V14.00,2013-04-20 03:55:00,
2013-04-19 23:58:00,36.3,29.8,29.69,SW,234,6.0,26.0,77,0.00,,---,0.33,VWS V14.00,2013-04-20 03:58:00,
2013-04-19 23:59:00,36.3,29.8,29.69,SW,230,8.0,26.0,77,0.00,,---,0.33,VWS V14.00,2013-04-20 03:59:00,